<?xml version="1.0" encoding="UTF-8" standalone="no" ?>
<gpx xmlns="http://www.topografix.com/GPX/1/1" xmlns:xsi="http://www.w3.org/2001/XMLSchema-instance" xsi:schemaLocation="http://www.topografix.com/GPX/1/1 http://www.topografix.com/GPX/1/1/gpx.xsd" version="1.1" creator="VisuGPX - https://www.visugpx.com">
  <metadata>
    <name>Autour de Saint Nicolas des Biefs</name>
    <desc><![CDATA[Parcours technique qui vous fera traverser les beaux paysages de la côte Roannaise et des Monts de la Madeleine.
Un vrai parcours de VTT, avec des secteurs techniques entrecoupés de parties plus roulantes pour récupérer et de bonnes descentes pour se faire plaisir. 
  
]]></desc>
  </metadata>
  <trk>
    <name><![CDATA[Saint Nicolas des Biefs 61kms]]></name>
    <trkseg>
      <trkpt lat="46.05913" lon="3.78463">
        <ele>897</ele>
        <time>2011-09-18T20:28:43Z</time>
      </trkpt>
      <trkpt lat="46.0589" lon="3.78538">
        <ele>896</ele>
        <time>2011-09-18T20:28:43Z</time>
      </trkpt>
      <trkpt lat="46.05919" lon="3.78687">
        <ele>900</ele>
        <time>2011-09-18T20:28:43Z</time>
      </trkpt>
      <trkpt lat="46.05928" lon="3.78772">
        <ele>914</ele>
        <time>2011-09-18T20:28:43Z</time>
      </trkpt>
      <trkpt lat="46.05922" lon="3.7888">
        <ele>924</ele>
        <time>2011-09-18T20:28:43Z</time>
      </trkpt>
      <trkpt lat="46.05929" lon="3.78961">
        <ele>934</ele>
        <time>2011-09-18T20:28:43Z</time>
      </trkpt>
      <trkpt lat="46.05956" lon="3.79075">
        <ele>944</ele>
        <time>2011-09-18T20:28:43Z</time>
      </trkpt>
      <trkpt lat="46.0597" lon="3.79131">
        <ele>947</ele>
        <time>2011-09-18T20:28:43Z</time>
      </trkpt>
      <trkpt lat="46.05993" lon="3.79166">
        <ele>951</ele>
        <time>2011-09-18T20:28:43Z</time>
      </trkpt>
      <trkpt lat="46.06037" lon="3.79167">
        <ele>952</ele>
        <time>2011-09-18T20:28:43Z</time>
      </trkpt>
      <trkpt lat="46.06025" lon="3.79301">
        <ele>957</ele>
        <time>2011-09-18T20:28:43Z</time>
      </trkpt>
      <trkpt lat="46.05957" lon="3.79362">
        <ele>961</ele>
        <time>2011-09-18T20:28:43Z</time>
      </trkpt>
      <trkpt lat="46.05846" lon="3.79442">
        <ele>957</ele>
        <time>2011-09-18T20:28:43Z</time>
      </trkpt>
      <trkpt lat="46.05729" lon="3.79506">
        <ele>953</ele>
        <time>2011-09-18T20:28:43Z</time>
      </trkpt>
      <trkpt lat="46.05711" lon="3.79517">
        <ele>953</ele>
        <time>2011-09-18T20:28:43Z</time>
      </trkpt>
      <trkpt lat="46.05696" lon="3.79533">
        <ele>954</ele>
        <time>2011-09-18T20:28:43Z</time>
      </trkpt>
      <trkpt lat="46.05642" lon="3.79593">
        <ele>958</ele>
        <time>2011-09-18T20:28:43Z</time>
      </trkpt>
      <trkpt lat="46.05597" lon="3.79648">
        <ele>962</ele>
        <time>2011-09-18T20:28:43Z</time>
      </trkpt>
      <trkpt lat="46.05576" lon="3.7969">
        <ele>965</ele>
        <time>2011-09-18T20:28:43Z</time>
      </trkpt>
      <trkpt lat="46.05592" lon="3.79823">
        <ele>976</ele>
        <time>2011-09-18T20:28:43Z</time>
      </trkpt>
      <trkpt lat="46.05604" lon="3.79905">
        <ele>981</ele>
        <time>2011-09-18T20:28:43Z</time>
      </trkpt>
      <trkpt lat="46.0561" lon="3.7996">
        <ele>983</ele>
        <time>2011-09-18T20:28:43Z</time>
      </trkpt>
      <trkpt lat="46.05623" lon="3.80017">
        <ele>987</ele>
        <time>2011-09-18T20:28:43Z</time>
      </trkpt>
      <trkpt lat="46.05658" lon="3.80075">
        <ele>991</ele>
        <time>2011-09-18T20:28:43Z</time>
      </trkpt>
      <trkpt lat="46.05682" lon="3.80109">
        <ele>992</ele>
        <time>2011-09-18T20:28:43Z</time>
      </trkpt>
      <trkpt lat="46.05687" lon="3.80135">
        <ele>991</ele>
        <time>2011-09-18T20:28:43Z</time>
      </trkpt>
      <trkpt lat="46.05648" lon="3.80244">
        <ele>1002</ele>
        <time>2011-09-18T20:28:43Z</time>
      </trkpt>
      <trkpt lat="46.05643" lon="3.80286">
        <ele>1006</ele>
        <time>2011-09-18T20:28:43Z</time>
      </trkpt>
      <trkpt lat="46.05662" lon="3.8033">
        <ele>1007</ele>
        <time>2011-09-18T20:28:43Z</time>
      </trkpt>
      <trkpt lat="46.05691" lon="3.80368">
        <ele>1008</ele>
        <time>2011-09-18T20:28:43Z</time>
      </trkpt>
      <trkpt lat="46.0572" lon="3.80427">
        <ele>1011</ele>
        <time>2011-09-18T20:28:43Z</time>
      </trkpt>
      <trkpt lat="46.05723" lon="3.80492">
        <ele>1013</ele>
        <time>2011-09-18T20:28:43Z</time>
      </trkpt>
      <trkpt lat="46.05719" lon="3.80542">
        <ele>1015</ele>
        <time>2011-09-18T20:28:43Z</time>
      </trkpt>
      <trkpt lat="46.05706" lon="3.80575">
        <ele>1015</ele>
        <time>2011-09-18T20:28:43Z</time>
      </trkpt>
      <trkpt lat="46.05654" lon="3.80635">
        <ele>1015</ele>
        <time>2011-09-18T20:28:43Z</time>
      </trkpt>
      <trkpt lat="46.05611" lon="3.80686">
        <ele>1012</ele>
        <time>2011-09-18T20:28:43Z</time>
      </trkpt>
      <trkpt lat="46.05578" lon="3.80724">
        <ele>1008</ele>
        <time>2011-09-18T20:28:43Z</time>
      </trkpt>
      <trkpt lat="46.05578" lon="3.80727">
        <ele>1008</ele>
        <time>2011-09-18T20:28:43Z</time>
      </trkpt>
      <trkpt lat="46.05589" lon="3.80735">
        <ele>1007</ele>
        <time>2011-09-18T20:28:43Z</time>
      </trkpt>
      <trkpt lat="46.05617" lon="3.80764">
        <ele>1005</ele>
        <time>2011-09-18T20:28:43Z</time>
      </trkpt>
      <trkpt lat="46.05682" lon="3.80845">
        <ele>1004</ele>
        <time>2011-09-18T20:28:43Z</time>
      </trkpt>
      <trkpt lat="46.05682" lon="3.80883">
        <ele>1003</ele>
        <time>2011-09-18T20:28:43Z</time>
      </trkpt>
      <trkpt lat="46.05683" lon="3.80932">
        <ele>1002</ele>
        <time>2011-09-18T20:28:43Z</time>
      </trkpt>
      <trkpt lat="46.05694" lon="3.80977">
        <ele>1004</ele>
        <time>2011-09-18T20:28:43Z</time>
      </trkpt>
      <trkpt lat="46.0571" lon="3.81013">
        <ele>1007</ele>
        <time>2011-09-18T20:28:43Z</time>
      </trkpt>
      <trkpt lat="46.05783" lon="3.81104">
        <ele>1011</ele>
        <time>2011-09-18T20:28:43Z</time>
      </trkpt>
      <trkpt lat="46.05834" lon="3.81178">
        <ele>1009</ele>
        <time>2011-09-18T20:28:43Z</time>
      </trkpt>
      <trkpt lat="46.05868" lon="3.81221">
        <ele>1011</ele>
        <time>2011-09-18T20:28:43Z</time>
      </trkpt>
      <trkpt lat="46.05897" lon="3.81246">
        <ele>1014</ele>
        <time>2011-09-18T20:28:43Z</time>
      </trkpt>
      <trkpt lat="46.05929" lon="3.81226">
        <ele>1017</ele>
        <time>2011-09-18T20:28:43Z</time>
      </trkpt>
      <trkpt lat="46.05941" lon="3.81234">
        <ele>1018</ele>
        <time>2011-09-18T20:28:43Z</time>
      </trkpt>
      <trkpt lat="46.05932" lon="3.8132">
        <ele>1021</ele>
        <time>2011-09-18T20:28:43Z</time>
      </trkpt>
      <trkpt lat="46.05963" lon="3.81348">
        <ele>1021</ele>
        <time>2011-09-18T20:28:43Z</time>
      </trkpt>
      <trkpt lat="46.06006" lon="3.81373">
        <ele>1022</ele>
        <time>2011-09-18T20:28:43Z</time>
      </trkpt>
      <trkpt lat="46.06056" lon="3.81375">
        <ele>1023</ele>
        <time>2011-09-18T20:28:43Z</time>
      </trkpt>
      <trkpt lat="46.06128" lon="3.81333">
        <ele>1025</ele>
        <time>2011-09-18T20:28:43Z</time>
      </trkpt>
      <trkpt lat="46.06169" lon="3.81308">
        <ele>1026</ele>
        <time>2011-09-18T20:28:43Z</time>
      </trkpt>
      <trkpt lat="46.06202" lon="3.81316">
        <ele>1027</ele>
        <time>2011-09-18T20:28:43Z</time>
      </trkpt>
      <trkpt lat="46.06216" lon="3.81273">
        <ele>1028</ele>
        <time>2011-09-18T20:28:43Z</time>
      </trkpt>
      <trkpt lat="46.06243" lon="3.81247">
        <ele>1029</ele>
        <time>2011-09-18T20:28:43Z</time>
      </trkpt>
      <trkpt lat="46.06249" lon="3.8122">
        <ele>1029</ele>
        <time>2011-09-18T20:28:43Z</time>
      </trkpt>
      <trkpt lat="46.06237" lon="3.81105">
        <ele>1026</ele>
        <time>2011-09-18T20:28:43Z</time>
      </trkpt>
      <trkpt lat="46.06205" lon="3.80951">
        <ele>1021</ele>
        <time>2011-09-18T20:28:43Z</time>
      </trkpt>
      <trkpt lat="46.06177" lon="3.80793">
        <ele>1014</ele>
        <time>2011-09-18T20:28:43Z</time>
      </trkpt>
      <trkpt lat="46.06176" lon="3.80743">
        <ele>1014</ele>
        <time>2011-09-18T20:28:43Z</time>
      </trkpt>
      <trkpt lat="46.06179" lon="3.80695">
        <ele>1015</ele>
        <time>2011-09-18T20:28:43Z</time>
      </trkpt>
      <trkpt lat="46.06196" lon="3.80661">
        <ele>1018</ele>
        <time>2011-09-18T20:28:43Z</time>
      </trkpt>
      <trkpt lat="46.06247" lon="3.80671">
        <ele>1018</ele>
        <time>2011-09-18T20:28:43Z</time>
      </trkpt>
      <trkpt lat="46.06296" lon="3.8068">
        <ele>1013</ele>
        <time>2011-09-18T20:28:43Z</time>
      </trkpt>
      <trkpt lat="46.06373" lon="3.8068">
        <ele>1010</ele>
        <time>2011-09-18T20:28:43Z</time>
      </trkpt>
      <trkpt lat="46.06512" lon="3.80736">
        <ele>1001</ele>
        <time>2011-09-18T20:28:43Z</time>
      </trkpt>
      <trkpt lat="46.0661" lon="3.80731">
        <ele>994</ele>
        <time>2011-09-18T20:28:43Z</time>
      </trkpt>
      <trkpt lat="46.06672" lon="3.80734">
        <ele>988</ele>
        <time>2011-09-18T20:28:43Z</time>
      </trkpt>
      <trkpt lat="46.06709" lon="3.80722">
        <ele>986</ele>
        <time>2011-09-18T20:28:43Z</time>
      </trkpt>
      <trkpt lat="46.06759" lon="3.80684">
        <ele>985</ele>
        <time>2011-09-18T20:28:43Z</time>
      </trkpt>
      <trkpt lat="46.06804" lon="3.80657">
        <ele>987</ele>
        <time>2011-09-18T20:28:43Z</time>
      </trkpt>
      <trkpt lat="46.06821" lon="3.80647">
        <ele>989</ele>
        <time>2011-09-18T20:28:43Z</time>
      </trkpt>
      <trkpt lat="46.06864" lon="3.80692">
        <ele>993</ele>
        <time>2011-09-18T20:28:43Z</time>
      </trkpt>
      <trkpt lat="46.06908" lon="3.80711">
        <ele>996</ele>
        <time>2011-09-18T20:28:43Z</time>
      </trkpt>
      <trkpt lat="46.06948" lon="3.80748">
        <ele>1000</ele>
        <time>2011-09-18T20:28:43Z</time>
      </trkpt>
      <trkpt lat="46.06993" lon="3.80799">
        <ele>1005</ele>
        <time>2011-09-18T20:28:43Z</time>
      </trkpt>
      <trkpt lat="46.07028" lon="3.80866">
        <ele>1006</ele>
        <time>2011-09-18T20:28:43Z</time>
      </trkpt>
      <trkpt lat="46.07069" lon="3.80942">
        <ele>1006</ele>
        <time>2011-09-18T20:28:43Z</time>
      </trkpt>
      <trkpt lat="46.07148" lon="3.81083">
        <ele>1006</ele>
        <time>2011-09-21T18:39:49Z</time>
      </trkpt>
      <trkpt lat="46.07191" lon="3.81304">
        <ele>999</ele>
        <time>2011-09-21T18:39:49Z</time>
      </trkpt>
      <trkpt lat="46.07175" lon="3.81421">
        <ele>996</ele>
        <time>2011-09-21T18:39:49Z</time>
      </trkpt>
      <trkpt lat="46.07258" lon="3.81425">
        <ele>999</ele>
        <time>2011-09-21T18:39:49Z</time>
      </trkpt>
      <trkpt lat="46.07349" lon="3.8145">
        <ele>1003</ele>
        <time>2011-09-21T18:39:49Z</time>
      </trkpt>
      <trkpt lat="46.07434" lon="3.81558">
        <ele>1004</ele>
        <time>2011-09-21T18:39:49Z</time>
      </trkpt>
      <trkpt lat="46.07615" lon="3.81603">
        <ele>1007</ele>
        <time>2011-09-21T18:39:49Z</time>
      </trkpt>
      <trkpt lat="46.0775" lon="3.81789">
        <ele>1008</ele>
        <time>2011-09-21T18:39:49Z</time>
      </trkpt>
      <trkpt lat="46.07811" lon="3.81783">
        <ele>1005</ele>
        <time>2011-09-21T18:39:49Z</time>
      </trkpt>
      <trkpt lat="46.07866" lon="3.81705">
        <ele>1006</ele>
        <time>2011-09-21T18:39:49Z</time>
      </trkpt>
      <trkpt lat="46.07975" lon="3.81583">
        <ele>1005</ele>
        <time>2011-09-21T18:39:49Z</time>
      </trkpt>
      <trkpt lat="46.08043" lon="3.81534">
        <ele>1003</ele>
        <time>2011-09-21T18:39:49Z</time>
      </trkpt>
      <trkpt lat="46.08107" lon="3.81582">
        <ele>1003</ele>
        <time>2011-09-21T18:39:49Z</time>
      </trkpt>
      <trkpt lat="46.08147" lon="3.81704">
        <ele>999</ele>
        <time>2011-09-21T18:39:49Z</time>
      </trkpt>
      <trkpt lat="46.08139" lon="3.82031">
        <ele>975</ele>
        <time>2011-09-21T18:39:49Z</time>
      </trkpt>
      <trkpt lat="46.08105" lon="3.82146">
        <ele>963</ele>
        <time>2011-09-21T18:39:49Z</time>
      </trkpt>
      <trkpt lat="46.08109" lon="3.82232">
        <ele>958</ele>
        <time>2011-09-21T18:39:49Z</time>
      </trkpt>
      <trkpt lat="46.08124" lon="3.82279">
        <ele>954</ele>
        <time>2011-09-21T18:39:49Z</time>
      </trkpt>
      <trkpt lat="46.08171" lon="3.82332">
        <ele>946</ele>
        <time>2011-09-21T18:39:49Z</time>
      </trkpt>
      <trkpt lat="46.083" lon="3.82388">
        <ele>924</ele>
        <time>2011-09-21T18:39:49Z</time>
      </trkpt>
      <trkpt lat="46.084" lon="3.82465">
        <ele>911</ele>
        <time>2011-09-21T18:39:49Z</time>
      </trkpt>
      <trkpt lat="46.08514" lon="3.82406">
        <ele>907</ele>
        <time>2011-09-21T18:39:49Z</time>
      </trkpt>
      <trkpt lat="46.08604" lon="3.8241">
        <ele>897</ele>
        <time>2011-09-18T20:28:43Z</time>
      </trkpt>
      <trkpt lat="46.08608" lon="3.8244">
        <ele>895</ele>
        <time>2011-09-18T20:28:43Z</time>
      </trkpt>
      <trkpt lat="46.08608" lon="3.82488">
        <ele>891</ele>
        <time>2011-09-18T20:28:43Z</time>
      </trkpt>
      <trkpt lat="46.08607" lon="3.82527">
        <ele>888</ele>
        <time>2011-09-18T20:28:43Z</time>
      </trkpt>
      <trkpt lat="46.086" lon="3.82614">
        <ele>880</ele>
        <time>2011-09-18T20:28:43Z</time>
      </trkpt>
      <trkpt lat="46.08582" lon="3.82697">
        <ele>873</ele>
        <time>2011-09-18T20:28:43Z</time>
      </trkpt>
      <trkpt lat="46.0857" lon="3.82814">
        <ele>862</ele>
        <time>2011-09-18T20:28:43Z</time>
      </trkpt>
      <trkpt lat="46.08559" lon="3.82875">
        <ele>855</ele>
        <time>2011-09-18T20:28:43Z</time>
      </trkpt>
      <trkpt lat="46.08538" lon="3.82919">
        <ele>851</ele>
        <time>2011-09-18T20:28:43Z</time>
      </trkpt>
      <trkpt lat="46.08466" lon="3.82997">
        <ele>840</ele>
        <time>2011-09-18T20:28:43Z</time>
      </trkpt>
      <trkpt lat="46.08395" lon="3.83075">
        <ele>836</ele>
        <time>2011-09-18T20:28:43Z</time>
      </trkpt>
      <trkpt lat="46.08348" lon="3.83131">
        <ele>832</ele>
        <time>2011-09-18T20:28:43Z</time>
      </trkpt>
      <trkpt lat="46.08323" lon="3.83162">
        <ele>830</ele>
        <time>2011-09-18T20:28:43Z</time>
      </trkpt>
      <trkpt lat="46.08303" lon="3.83202">
        <ele>829</ele>
        <time>2011-09-18T20:28:43Z</time>
      </trkpt>
      <trkpt lat="46.08284" lon="3.8326">
        <ele>829</ele>
        <time>2011-09-18T20:28:43Z</time>
      </trkpt>
      <trkpt lat="46.0827" lon="3.83264">
        <ele>826</ele>
        <time>2011-09-18T20:28:43Z</time>
      </trkpt>
      <trkpt lat="46.08251" lon="3.83241">
        <ele>819</ele>
        <time>2011-09-18T20:28:43Z</time>
      </trkpt>
      <trkpt lat="46.08231" lon="3.83241">
        <ele>816</ele>
        <time>2011-09-18T20:28:43Z</time>
      </trkpt>
      <trkpt lat="46.08215" lon="3.83242">
        <ele>814</ele>
        <time>2011-09-18T20:28:43Z</time>
      </trkpt>
      <trkpt lat="46.08186" lon="3.83265">
        <ele>812</ele>
        <time>2011-09-18T20:28:43Z</time>
      </trkpt>
      <trkpt lat="46.08122" lon="3.83475">
        <ele>792</ele>
        <time>2011-09-18T20:28:43Z</time>
      </trkpt>
      <trkpt lat="46.08057" lon="3.83701">
        <ele>790</ele>
        <time>2011-09-18T20:28:43Z</time>
      </trkpt>
      <trkpt lat="46.08038" lon="3.83795">
        <ele>783</ele>
        <time>2011-09-18T20:28:43Z</time>
      </trkpt>
      <trkpt lat="46.08" lon="3.83959">
        <ele>758</ele>
        <time>2011-09-18T20:28:43Z</time>
      </trkpt>
      <trkpt lat="46.07994" lon="3.84055">
        <ele>747</ele>
        <time>2011-09-18T20:28:43Z</time>
      </trkpt>
      <trkpt lat="46.07988" lon="3.84168">
        <ele>737</ele>
        <time>2011-09-18T20:28:43Z</time>
      </trkpt>
      <trkpt lat="46.07993" lon="3.84206">
        <ele>735</ele>
        <time>2011-09-18T20:28:43Z</time>
      </trkpt>
      <trkpt lat="46.07995" lon="3.84249">
        <ele>729</ele>
        <time>2011-09-18T20:28:43Z</time>
      </trkpt>
      <trkpt lat="46.08082" lon="3.84258">
        <ele>727</ele>
        <time>2011-09-18T20:28:43Z</time>
      </trkpt>
      <trkpt lat="46.08106" lon="3.84265">
        <ele>725</ele>
        <time>2011-09-18T20:28:43Z</time>
      </trkpt>
      <trkpt lat="46.0814" lon="3.8432">
        <ele>712</ele>
        <time>2011-09-18T20:28:43Z</time>
      </trkpt>
      <trkpt lat="46.08185" lon="3.84402">
        <ele>708</ele>
        <time>2011-09-18T20:28:43Z</time>
      </trkpt>
      <trkpt lat="46.08242" lon="3.84434">
        <ele>705</ele>
        <time>2011-09-18T20:28:43Z</time>
      </trkpt>
      <trkpt lat="46.08307" lon="3.84465">
        <ele>695</ele>
        <time>2011-09-18T20:28:43Z</time>
      </trkpt>
      <trkpt lat="46.08367" lon="3.84458">
        <ele>699</ele>
        <time>2011-09-18T20:28:43Z</time>
      </trkpt>
      <trkpt lat="46.08439" lon="3.84399">
        <ele>707</ele>
        <time>2011-09-18T20:28:43Z</time>
      </trkpt>
      <trkpt lat="46.08483" lon="3.84361">
        <ele>711</ele>
        <time>2011-09-18T20:28:43Z</time>
      </trkpt>
      <trkpt lat="46.08524" lon="3.84293">
        <ele>715</ele>
        <time>2011-09-18T20:28:43Z</time>
      </trkpt>
      <trkpt lat="46.08562" lon="3.84255">
        <ele>715</ele>
        <time>2011-09-18T20:28:43Z</time>
      </trkpt>
      <trkpt lat="46.08597" lon="3.84219">
        <ele>714</ele>
        <time>2011-09-18T20:28:43Z</time>
      </trkpt>
      <trkpt lat="46.08626" lon="3.842">
        <ele>719</ele>
        <time>2011-09-18T20:28:43Z</time>
      </trkpt>
      <trkpt lat="46.0866" lon="3.84209">
        <ele>721</ele>
        <time>2011-09-18T20:28:43Z</time>
      </trkpt>
      <trkpt lat="46.08699" lon="3.84228">
        <ele>723</ele>
        <time>2011-09-18T20:28:43Z</time>
      </trkpt>
      <trkpt lat="46.08746" lon="3.84268">
        <ele>726</ele>
        <time>2011-09-18T20:28:43Z</time>
      </trkpt>
      <trkpt lat="46.08771" lon="3.8428">
        <ele>729</ele>
        <time>2011-09-18T20:28:43Z</time>
      </trkpt>
      <trkpt lat="46.08801" lon="3.84275">
        <ele>730</ele>
        <time>2011-09-18T20:28:43Z</time>
      </trkpt>
      <trkpt lat="46.08828" lon="3.84209">
        <ele>740</ele>
        <time>2011-09-18T20:28:43Z</time>
      </trkpt>
      <trkpt lat="46.08855" lon="3.84136">
        <ele>750</ele>
        <time>2011-09-18T20:28:43Z</time>
      </trkpt>
      <trkpt lat="46.08884" lon="3.84102">
        <ele>753</ele>
        <time>2011-09-18T20:28:43Z</time>
      </trkpt>
      <trkpt lat="46.08907" lon="3.84095">
        <ele>752</ele>
        <time>2011-09-18T20:28:43Z</time>
      </trkpt>
      <trkpt lat="46.08932" lon="3.84097">
        <ele>755</ele>
        <time>2011-09-18T20:28:43Z</time>
      </trkpt>
      <trkpt lat="46.08949" lon="3.8413">
        <ele>754</ele>
        <time>2011-09-18T20:28:43Z</time>
      </trkpt>
      <trkpt lat="46.08996" lon="3.84259">
        <ele>761</ele>
        <time>2011-09-18T20:28:43Z</time>
      </trkpt>
      <trkpt lat="46.09039" lon="3.84318">
        <ele>767</ele>
        <time>2011-09-18T20:28:43Z</time>
      </trkpt>
      <trkpt lat="46.09083" lon="3.84404">
        <ele>761</ele>
        <time>2011-09-18T20:28:43Z</time>
      </trkpt>
      <trkpt lat="46.09124" lon="3.84428">
        <ele>764</ele>
        <time>2011-09-18T20:28:43Z</time>
      </trkpt>
      <trkpt lat="46.09169" lon="3.84489">
        <ele>763</ele>
        <time>2011-09-18T20:28:43Z</time>
      </trkpt>
      <trkpt lat="46.09271" lon="3.84563">
        <ele>766</ele>
        <time>2011-09-18T20:28:43Z</time>
      </trkpt>
      <trkpt lat="46.09351" lon="3.84608">
        <ele>765</ele>
        <time>2011-09-18T20:28:43Z</time>
      </trkpt>
      <trkpt lat="46.09397" lon="3.84636">
        <ele>766</ele>
        <time>2011-09-18T20:28:43Z</time>
      </trkpt>
      <trkpt lat="46.0948" lon="3.84612">
        <ele>762</ele>
        <time>2011-09-18T20:28:43Z</time>
      </trkpt>
      <trkpt lat="46.09543" lon="3.84609">
        <ele>762</ele>
        <time>2011-09-18T20:28:43Z</time>
      </trkpt>
      <trkpt lat="46.09593" lon="3.84613">
        <ele>761</ele>
        <time>2011-09-18T20:28:43Z</time>
      </trkpt>
      <trkpt lat="46.09675" lon="3.8469">
        <ele>764</ele>
        <time>2011-09-18T20:28:43Z</time>
      </trkpt>
      <trkpt lat="46.09753" lon="3.84744">
        <ele>755</ele>
        <time>2011-09-18T20:28:43Z</time>
      </trkpt>
      <trkpt lat="46.0979" lon="3.84766">
        <ele>753</ele>
        <time>2011-09-18T20:28:43Z</time>
      </trkpt>
      <trkpt lat="46.09869" lon="3.84818">
        <ele>753</ele>
        <time>2011-09-18T20:28:43Z</time>
      </trkpt>
      <trkpt lat="46.09906" lon="3.84858">
        <ele>752</ele>
        <time>2011-09-18T20:28:43Z</time>
      </trkpt>
      <trkpt lat="46.0992" lon="3.84948">
        <ele>749</ele>
        <time>2011-09-18T20:28:43Z</time>
      </trkpt>
      <trkpt lat="46.09936" lon="3.85074">
        <ele>733</ele>
        <time>2011-09-18T20:28:43Z</time>
      </trkpt>
      <trkpt lat="46.09933" lon="3.85177">
        <ele>720</ele>
        <time>2011-09-18T20:28:43Z</time>
      </trkpt>
      <trkpt lat="46.09914" lon="3.85253">
        <ele>714</ele>
        <time>2011-09-18T20:28:43Z</time>
      </trkpt>
      <trkpt lat="46.09883" lon="3.85336">
        <ele>710</ele>
        <time>2011-09-18T20:28:43Z</time>
      </trkpt>
      <trkpt lat="46.09839" lon="3.85513">
        <ele>696</ele>
        <time>2011-09-18T20:28:43Z</time>
      </trkpt>
      <trkpt lat="46.09821" lon="3.85569">
        <ele>693</ele>
        <time>2011-09-18T20:28:43Z</time>
      </trkpt>
      <trkpt lat="46.09773" lon="3.85707">
        <ele>696</ele>
        <time>2011-09-18T20:28:43Z</time>
      </trkpt>
      <trkpt lat="46.09755" lon="3.858">
        <ele>698</ele>
        <time>2011-09-18T20:28:43Z</time>
      </trkpt>
      <trkpt lat="46.09734" lon="3.85903">
        <ele>702</ele>
        <time>2011-09-18T20:28:43Z</time>
      </trkpt>
      <trkpt lat="46.09716" lon="3.85969">
        <ele>703</ele>
        <time>2011-09-18T20:28:43Z</time>
      </trkpt>
      <trkpt lat="46.09701" lon="3.86012">
        <ele>703</ele>
        <time>2011-09-18T20:28:43Z</time>
      </trkpt>
      <trkpt lat="46.09677" lon="3.86055">
        <ele>702</ele>
        <time>2011-09-18T20:28:43Z</time>
      </trkpt>
      <trkpt lat="46.09654" lon="3.86098">
        <ele>701</ele>
        <time>2011-09-18T20:28:43Z</time>
      </trkpt>
      <trkpt lat="46.09611" lon="3.86105">
        <ele>702</ele>
        <time>2011-09-18T20:28:43Z</time>
      </trkpt>
      <trkpt lat="46.09556" lon="3.86118">
        <ele>692</ele>
        <time>2011-09-18T20:28:43Z</time>
      </trkpt>
      <trkpt lat="46.09507" lon="3.86129">
        <ele>687</ele>
        <time>2011-09-18T20:28:43Z</time>
      </trkpt>
      <trkpt lat="46.09462" lon="3.86175">
        <ele>687</ele>
        <time>2011-09-18T20:28:43Z</time>
      </trkpt>
      <trkpt lat="46.09435" lon="3.86266">
        <ele>680</ele>
        <time>2011-09-18T20:28:43Z</time>
      </trkpt>
      <trkpt lat="46.09421" lon="3.8629">
        <ele>679</ele>
        <time>2011-09-18T20:28:43Z</time>
      </trkpt>
      <trkpt lat="46.09403" lon="3.86349">
        <ele>677</ele>
        <time>2011-09-18T20:28:43Z</time>
      </trkpt>
      <trkpt lat="46.09426" lon="3.86373">
        <ele>672</ele>
        <time>2011-09-18T20:28:43Z</time>
      </trkpt>
      <trkpt lat="46.0945" lon="3.86427">
        <ele>667</ele>
        <time>2011-09-18T20:28:43Z</time>
      </trkpt>
      <trkpt lat="46.09474" lon="3.86474">
        <ele>663</ele>
        <time>2011-09-18T20:28:43Z</time>
      </trkpt>
      <trkpt lat="46.09512" lon="3.86553">
        <ele>659</ele>
        <time>2011-09-18T20:28:43Z</time>
      </trkpt>
      <trkpt lat="46.09511" lon="3.86611">
        <ele>659</ele>
        <time>2011-09-18T20:28:43Z</time>
      </trkpt>
      <trkpt lat="46.09509" lon="3.86663">
        <ele>656</ele>
        <time>2011-09-18T20:28:43Z</time>
      </trkpt>
      <trkpt lat="46.09511" lon="3.86697">
        <ele>654</ele>
        <time>2011-09-18T20:28:43Z</time>
      </trkpt>
      <trkpt lat="46.09537" lon="3.86767">
        <ele>648</ele>
        <time>2011-09-18T20:28:43Z</time>
      </trkpt>
      <trkpt lat="46.09541" lon="3.86848">
        <ele>641</ele>
        <time>2011-09-18T20:28:43Z</time>
      </trkpt>
      <trkpt lat="46.09534" lon="3.86906">
        <ele>635</ele>
        <time>2011-09-18T20:28:43Z</time>
      </trkpt>
      <trkpt lat="46.09502" lon="3.8696">
        <ele>634</ele>
        <time>2011-09-18T20:28:43Z</time>
      </trkpt>
      <trkpt lat="46.09466" lon="3.87037">
        <ele>628</ele>
        <time>2011-09-18T20:28:43Z</time>
      </trkpt>
      <trkpt lat="46.09416" lon="3.87076">
        <ele>625</ele>
        <time>2011-09-18T20:28:43Z</time>
      </trkpt>
      <trkpt lat="46.09377" lon="3.87126">
        <ele>621</ele>
        <time>2011-09-18T20:28:43Z</time>
      </trkpt>
      <trkpt lat="46.09339" lon="3.87146">
        <ele>619</ele>
        <time>2011-09-18T20:28:43Z</time>
      </trkpt>
      <trkpt lat="46.09314" lon="3.87172">
        <ele>616</ele>
        <time>2011-09-18T20:28:43Z</time>
      </trkpt>
      <trkpt lat="46.09279" lon="3.87193">
        <ele>614</ele>
        <time>2011-09-18T20:28:43Z</time>
      </trkpt>
      <trkpt lat="46.09262" lon="3.87212">
        <ele>613</ele>
        <time>2011-09-18T20:28:43Z</time>
      </trkpt>
      <trkpt lat="46.09254" lon="3.87269">
        <ele>609</ele>
        <time>2011-09-18T20:28:43Z</time>
      </trkpt>
      <trkpt lat="46.09256" lon="3.87432">
        <ele>600</ele>
        <time>2011-09-18T20:28:43Z</time>
      </trkpt>
      <trkpt lat="46.09266" lon="3.8755">
        <ele>591</ele>
        <time>2011-09-18T20:28:43Z</time>
      </trkpt>
      <trkpt lat="46.09273" lon="3.8761">
        <ele>586</ele>
        <time>2011-09-18T20:28:43Z</time>
      </trkpt>
      <trkpt lat="46.09267" lon="3.87667">
        <ele>582</ele>
        <time>2011-09-18T20:28:43Z</time>
      </trkpt>
      <trkpt lat="46.09258" lon="3.87744">
        <ele>577</ele>
        <time>2011-09-18T20:28:43Z</time>
      </trkpt>
      <trkpt lat="46.09243" lon="3.87792">
        <ele>576</ele>
        <time>2011-09-18T20:28:43Z</time>
      </trkpt>
      <trkpt lat="46.09225" lon="3.87845">
        <ele>573</ele>
        <time>2011-09-18T20:28:43Z</time>
      </trkpt>
      <trkpt lat="46.09196" lon="3.87875">
        <ele>569</ele>
        <time>2011-09-18T20:28:43Z</time>
      </trkpt>
      <trkpt lat="46.0917" lon="3.87934">
        <ele>564</ele>
        <time>2011-09-18T20:28:43Z</time>
      </trkpt>
      <trkpt lat="46.09147" lon="3.87959">
        <ele>560</ele>
        <time>2011-09-18T20:28:43Z</time>
      </trkpt>
      <trkpt lat="46.0915" lon="3.88009">
        <ele>558</ele>
        <time>2011-09-18T20:28:43Z</time>
      </trkpt>
      <trkpt lat="46.09146" lon="3.88027">
        <ele>556</ele>
        <time>2011-09-18T20:28:43Z</time>
      </trkpt>
      <trkpt lat="46.09133" lon="3.88017">
        <ele>555</ele>
        <time>2011-09-18T20:28:43Z</time>
      </trkpt>
      <trkpt lat="46.09112" lon="3.87995">
        <ele>554</ele>
        <time>2011-09-18T20:28:43Z</time>
      </trkpt>
      <trkpt lat="46.09092" lon="3.87987">
        <ele>552</ele>
        <time>2011-09-18T20:28:43Z</time>
      </trkpt>
      <trkpt lat="46.09079" lon="3.87988">
        <ele>550</ele>
        <time>2011-09-18T20:28:43Z</time>
      </trkpt>
      <trkpt lat="46.09044" lon="3.88">
        <ele>544</ele>
        <time>2011-09-18T20:28:43Z</time>
      </trkpt>
      <trkpt lat="46.09018" lon="3.87978">
        <ele>544</ele>
        <time>2011-09-18T20:28:43Z</time>
      </trkpt>
      <trkpt lat="46.08999" lon="3.87973">
        <ele>543</ele>
        <time>2011-09-18T20:28:43Z</time>
      </trkpt>
      <trkpt lat="46.08975" lon="3.87966">
        <ele>543</ele>
        <time>2011-09-18T20:28:43Z</time>
      </trkpt>
      <trkpt lat="46.08966" lon="3.87972">
        <ele>542</ele>
        <time>2011-09-18T20:28:43Z</time>
      </trkpt>
      <trkpt lat="46.08965" lon="3.87973">
        <ele>542</ele>
        <time>2011-09-18T20:28:43Z</time>
      </trkpt>
      <trkpt lat="46.08964" lon="3.88006">
        <ele>542</ele>
        <time>2011-09-18T20:28:43Z</time>
      </trkpt>
      <trkpt lat="46.08964" lon="3.88028">
        <ele>542</ele>
        <time>2011-09-18T20:28:43Z</time>
      </trkpt>
      <trkpt lat="46.08964" lon="3.88043">
        <ele>543</ele>
        <time>2011-09-18T20:28:43Z</time>
      </trkpt>
      <trkpt lat="46.08959" lon="3.88057">
        <ele>544</ele>
        <time>2011-09-18T20:28:43Z</time>
      </trkpt>
      <trkpt lat="46.08913" lon="3.88037">
        <ele>551</ele>
        <time>2011-09-18T20:28:43Z</time>
      </trkpt>
      <trkpt lat="46.08873" lon="3.88">
        <ele>557</ele>
        <time>2011-09-18T20:28:43Z</time>
      </trkpt>
      <trkpt lat="46.08854" lon="3.87967">
        <ele>559</ele>
        <time>2011-09-18T20:28:43Z</time>
      </trkpt>
      <trkpt lat="46.0883" lon="3.87944">
        <ele>562</ele>
        <time>2011-09-18T20:28:43Z</time>
      </trkpt>
      <trkpt lat="46.08805" lon="3.87943">
        <ele>565</ele>
        <time>2011-09-18T20:28:43Z</time>
      </trkpt>
      <trkpt lat="46.08785" lon="3.87992">
        <ele>567</ele>
        <time>2011-09-18T20:28:43Z</time>
      </trkpt>
      <trkpt lat="46.08765" lon="3.8812">
        <ele>567</ele>
        <time>2011-09-18T20:28:43Z</time>
      </trkpt>
      <trkpt lat="46.0876" lon="3.88157">
        <ele>566</ele>
        <time>2011-09-18T20:28:43Z</time>
      </trkpt>
      <trkpt lat="46.08745" lon="3.88227">
        <ele>563</ele>
        <time>2011-09-18T20:28:43Z</time>
      </trkpt>
      <trkpt lat="46.08739" lon="3.88255">
        <ele>561</ele>
        <time>2011-09-18T20:28:43Z</time>
      </trkpt>
      <trkpt lat="46.08731" lon="3.88295">
        <ele>558</ele>
        <time>2011-09-18T20:28:43Z</time>
      </trkpt>
      <trkpt lat="46.08717" lon="3.88328">
        <ele>554</ele>
        <time>2011-09-18T20:28:43Z</time>
      </trkpt>
      <trkpt lat="46.0869" lon="3.8836">
        <ele>548</ele>
        <time>2011-09-18T20:28:43Z</time>
      </trkpt>
      <trkpt lat="46.08669" lon="3.884">
        <ele>544</ele>
        <time>2011-09-18T20:28:43Z</time>
      </trkpt>
      <trkpt lat="46.08655" lon="3.88435">
        <ele>543</ele>
        <time>2011-09-18T20:28:43Z</time>
      </trkpt>
      <trkpt lat="46.08648" lon="3.88512">
        <ele>542</ele>
        <time>2011-09-18T20:28:43Z</time>
      </trkpt>
      <trkpt lat="46.08629" lon="3.88606">
        <ele>548</ele>
        <time>2011-09-18T20:28:43Z</time>
      </trkpt>
      <trkpt lat="46.08601" lon="3.88694">
        <ele>550</ele>
        <time>2011-09-18T20:28:43Z</time>
      </trkpt>
      <trkpt lat="46.08562" lon="3.88769">
        <ele>552</ele>
        <time>2011-09-18T20:28:43Z</time>
      </trkpt>
      <trkpt lat="46.08554" lon="3.88796">
        <ele>551</ele>
        <time>2011-09-18T20:28:43Z</time>
      </trkpt>
      <trkpt lat="46.08537" lon="3.88907">
        <ele>546</ele>
        <time>2011-09-18T20:28:43Z</time>
      </trkpt>
      <trkpt lat="46.08529" lon="3.88989">
        <ele>541</ele>
        <time>2011-09-18T20:28:43Z</time>
      </trkpt>
      <trkpt lat="46.08513" lon="3.89081">
        <ele>533</ele>
        <time>2011-09-18T20:28:43Z</time>
      </trkpt>
      <trkpt lat="46.08508" lon="3.89184">
        <ele>523</ele>
        <time>2011-09-18T20:28:43Z</time>
      </trkpt>
      <trkpt lat="46.08511" lon="3.89263">
        <ele>516</ele>
        <time>2011-09-18T20:28:43Z</time>
      </trkpt>
      <trkpt lat="46.08476" lon="3.89348">
        <ele>513</ele>
        <time>2011-09-18T20:28:43Z</time>
      </trkpt>
      <trkpt lat="46.08463" lon="3.89403">
        <ele>506</ele>
        <time>2011-09-18T20:28:43Z</time>
      </trkpt>
      <trkpt lat="46.08426" lon="3.89507">
        <ele>495</ele>
        <time>2011-09-18T20:28:43Z</time>
      </trkpt>
      <trkpt lat="46.08413" lon="3.89542">
        <ele>489</ele>
        <time>2011-09-18T20:28:43Z</time>
      </trkpt>
      <trkpt lat="46.08398" lon="3.89572">
        <ele>486</ele>
        <time>2011-09-18T20:28:43Z</time>
      </trkpt>
      <trkpt lat="46.08386" lon="3.8958">
        <ele>486</ele>
        <time>2011-09-18T20:28:43Z</time>
      </trkpt>
      <trkpt lat="46.08361" lon="3.89603">
        <ele>481</ele>
        <time>2011-09-18T20:28:43Z</time>
      </trkpt>
      <trkpt lat="46.08355" lon="3.89586">
        <ele>481</ele>
        <time>2011-09-18T20:28:43Z</time>
      </trkpt>
      <trkpt lat="46.08345" lon="3.89449">
        <ele>483</ele>
        <time>2011-09-18T20:28:43Z</time>
      </trkpt>
      <trkpt lat="46.08341" lon="3.89409">
        <ele>485</ele>
        <time>2011-09-18T20:28:43Z</time>
      </trkpt>
      <trkpt lat="46.08322" lon="3.89345">
        <ele>485</ele>
        <time>2011-09-18T20:28:43Z</time>
      </trkpt>
      <trkpt lat="46.08314" lon="3.89255">
        <ele>490</ele>
        <time>2011-09-18T20:28:43Z</time>
      </trkpt>
      <trkpt lat="46.08305" lon="3.89214">
        <ele>493</ele>
        <time>2011-09-18T20:28:43Z</time>
      </trkpt>
      <trkpt lat="46.08286" lon="3.89173">
        <ele>495</ele>
        <time>2011-09-18T20:28:43Z</time>
      </trkpt>
      <trkpt lat="46.08248" lon="3.89143">
        <ele>491</ele>
        <time>2011-09-18T20:28:43Z</time>
      </trkpt>
      <trkpt lat="46.08224" lon="3.89116">
        <ele>487</ele>
        <time>2011-09-18T20:28:43Z</time>
      </trkpt>
      <trkpt lat="46.08194" lon="3.89039">
        <ele>491</ele>
        <time>2011-09-18T20:28:43Z</time>
      </trkpt>
      <trkpt lat="46.08187" lon="3.88967">
        <ele>496</ele>
        <time>2011-09-18T20:28:43Z</time>
      </trkpt>
      <trkpt lat="46.08184" lon="3.88881">
        <ele>504</ele>
        <time>2011-09-18T20:28:43Z</time>
      </trkpt>
      <trkpt lat="46.0817" lon="3.88829">
        <ele>513</ele>
        <time>2011-09-18T20:28:43Z</time>
      </trkpt>
      <trkpt lat="46.08146" lon="3.8876">
        <ele>521</ele>
        <time>2011-09-18T20:28:43Z</time>
      </trkpt>
      <trkpt lat="46.08118" lon="3.88725">
        <ele>522</ele>
        <time>2011-09-18T20:28:43Z</time>
      </trkpt>
      <trkpt lat="46.08087" lon="3.88712">
        <ele>525</ele>
        <time>2011-09-18T20:28:43Z</time>
      </trkpt>
      <trkpt lat="46.0806" lon="3.88688">
        <ele>531</ele>
        <time>2011-09-18T20:28:43Z</time>
      </trkpt>
      <trkpt lat="46.08039" lon="3.88665">
        <ele>536</ele>
        <time>2011-09-18T20:28:43Z</time>
      </trkpt>
      <trkpt lat="46.08031" lon="3.88615">
        <ele>540</ele>
        <time>2011-09-18T20:28:43Z</time>
      </trkpt>
      <trkpt lat="46.08029" lon="3.88485">
        <ele>547</ele>
        <time>2011-09-18T20:28:43Z</time>
      </trkpt>
      <trkpt lat="46.08017" lon="3.88415">
        <ele>551</ele>
        <time>2011-09-18T20:28:43Z</time>
      </trkpt>
      <trkpt lat="46.08005" lon="3.88323">
        <ele>556</ele>
        <time>2011-09-18T20:28:43Z</time>
      </trkpt>
      <trkpt lat="46.07988" lon="3.88227">
        <ele>562</ele>
        <time>2011-09-18T20:28:43Z</time>
      </trkpt>
      <trkpt lat="46.07981" lon="3.88156">
        <ele>567</ele>
        <time>2011-09-18T20:28:43Z</time>
      </trkpt>
      <trkpt lat="46.07967" lon="3.8811">
        <ele>570</ele>
        <time>2011-09-18T20:28:43Z</time>
      </trkpt>
      <trkpt lat="46.07957" lon="3.88073">
        <ele>576</ele>
        <time>2011-09-18T20:28:43Z</time>
      </trkpt>
      <trkpt lat="46.07937" lon="3.88024">
        <ele>584</ele>
        <time>2011-09-18T20:28:43Z</time>
      </trkpt>
      <trkpt lat="46.0791" lon="3.87997">
        <ele>589</ele>
        <time>2011-09-18T20:28:43Z</time>
      </trkpt>
      <trkpt lat="46.07887" lon="3.87993">
        <ele>586</ele>
        <time>2011-09-18T20:28:43Z</time>
      </trkpt>
      <trkpt lat="46.07854" lon="3.87905">
        <ele>598</ele>
        <time>2011-09-18T20:28:43Z</time>
      </trkpt>
      <trkpt lat="46.0785" lon="3.8785">
        <ele>604</ele>
        <time>2011-09-18T20:28:43Z</time>
      </trkpt>
      <trkpt lat="46.07826" lon="3.87781">
        <ele>605</ele>
        <time>2011-09-18T20:28:43Z</time>
      </trkpt>
      <trkpt lat="46.07792" lon="3.87691">
        <ele>621</ele>
        <time>2011-09-18T20:28:43Z</time>
      </trkpt>
      <trkpt lat="46.07789" lon="3.87665">
        <ele>622</ele>
        <time>2011-09-18T20:28:43Z</time>
      </trkpt>
      <trkpt lat="46.07789" lon="3.87562">
        <ele>629</ele>
        <time>2011-09-18T20:28:43Z</time>
      </trkpt>
      <trkpt lat="46.07806" lon="3.87514">
        <ele>636</ele>
        <time>2011-09-18T20:28:43Z</time>
      </trkpt>
      <trkpt lat="46.07816" lon="3.8748">
        <ele>642</ele>
        <time>2011-09-18T20:28:43Z</time>
      </trkpt>
      <trkpt lat="46.07816" lon="3.87443">
        <ele>648</ele>
        <time>2011-09-18T20:28:43Z</time>
      </trkpt>
      <trkpt lat="46.07804" lon="3.8742">
        <ele>652</ele>
        <time>2011-09-18T20:28:43Z</time>
      </trkpt>
      <trkpt lat="46.07776" lon="3.87384">
        <ele>655</ele>
        <time>2011-09-18T20:28:43Z</time>
      </trkpt>
      <trkpt lat="46.07751" lon="3.87346">
        <ele>656</ele>
        <time>2011-09-18T20:28:43Z</time>
      </trkpt>
      <trkpt lat="46.07729" lon="3.87302">
        <ele>659</ele>
        <time>2011-09-18T20:28:43Z</time>
      </trkpt>
      <trkpt lat="46.07714" lon="3.87235">
        <ele>667</ele>
        <time>2011-09-18T20:28:43Z</time>
      </trkpt>
      <trkpt lat="46.07709" lon="3.87149">
        <ele>678</ele>
        <time>2011-09-18T20:28:43Z</time>
      </trkpt>
      <trkpt lat="46.07717" lon="3.87099">
        <ele>684</ele>
        <time>2011-09-18T20:28:43Z</time>
      </trkpt>
      <trkpt lat="46.07738" lon="3.87071">
        <ele>688</ele>
        <time>2011-09-18T20:28:43Z</time>
      </trkpt>
      <trkpt lat="46.07755" lon="3.87062">
        <ele>691</ele>
        <time>2011-09-18T20:28:43Z</time>
      </trkpt>
      <trkpt lat="46.07783" lon="3.87054">
        <ele>694</ele>
        <time>2011-09-18T20:28:43Z</time>
      </trkpt>
      <trkpt lat="46.07805" lon="3.87035">
        <ele>699</ele>
        <time>2011-09-18T20:28:43Z</time>
      </trkpt>
      <trkpt lat="46.07789" lon="3.87009">
        <ele>699</ele>
        <time>2011-09-18T20:28:43Z</time>
      </trkpt>
      <trkpt lat="46.07733" lon="3.86954">
        <ele>700</ele>
        <time>2011-09-18T20:28:43Z</time>
      </trkpt>
      <trkpt lat="46.07698" lon="3.86916">
        <ele>700</ele>
        <time>2011-09-18T20:28:43Z</time>
      </trkpt>
      <trkpt lat="46.07668" lon="3.86888">
        <ele>702</ele>
        <time>2011-09-18T20:28:43Z</time>
      </trkpt>
      <trkpt lat="46.07641" lon="3.86876">
        <ele>703</ele>
        <time>2011-09-18T20:28:43Z</time>
      </trkpt>
      <trkpt lat="46.07595" lon="3.8687">
        <ele>709</ele>
        <time>2011-09-18T20:28:43Z</time>
      </trkpt>
      <trkpt lat="46.07545" lon="3.86865">
        <ele>719</ele>
        <time>2011-09-18T20:28:43Z</time>
      </trkpt>
      <trkpt lat="46.075" lon="3.86862">
        <ele>725</ele>
        <time>2011-09-18T20:28:43Z</time>
      </trkpt>
      <trkpt lat="46.07444" lon="3.86852">
        <ele>726</ele>
        <time>2011-09-18T20:28:43Z</time>
      </trkpt>
      <trkpt lat="46.07384" lon="3.86848">
        <ele>719</ele>
        <time>2011-09-18T20:28:43Z</time>
      </trkpt>
      <trkpt lat="46.0734" lon="3.86853">
        <ele>711</ele>
        <time>2011-09-18T20:28:43Z</time>
      </trkpt>
      <trkpt lat="46.07321" lon="3.86872">
        <ele>710</ele>
        <time>2011-09-18T20:28:43Z</time>
      </trkpt>
      <trkpt lat="46.07309" lon="3.86959">
        <ele>707</ele>
        <time>2011-09-18T20:28:43Z</time>
      </trkpt>
      <trkpt lat="46.07288" lon="3.87015">
        <ele>712</ele>
        <time>2011-09-18T20:28:43Z</time>
      </trkpt>
      <trkpt lat="46.07245" lon="3.87055">
        <ele>719</ele>
        <time>2011-09-18T20:28:43Z</time>
      </trkpt>
      <trkpt lat="46.07221" lon="3.8706">
        <ele>721</ele>
        <time>2011-09-18T20:28:43Z</time>
      </trkpt>
      <trkpt lat="46.07195" lon="3.87065">
        <ele>724</ele>
        <time>2011-09-18T20:28:43Z</time>
      </trkpt>
      <trkpt lat="46.07186" lon="3.87081">
        <ele>727</ele>
        <time>2011-09-18T20:28:43Z</time>
      </trkpt>
      <trkpt lat="46.07193" lon="3.87107">
        <ele>728</ele>
        <time>2011-09-18T20:28:43Z</time>
      </trkpt>
      <trkpt lat="46.07266" lon="3.87164">
        <ele>729</ele>
        <time>2011-09-18T20:28:43Z</time>
      </trkpt>
      <trkpt lat="46.07289" lon="3.87207">
        <ele>731</ele>
        <time>2011-09-18T20:28:43Z</time>
      </trkpt>
      <trkpt lat="46.07295" lon="3.87257">
        <ele>732</ele>
        <time>2011-09-18T20:28:43Z</time>
      </trkpt>
      <trkpt lat="46.07294" lon="3.87273">
        <ele>733</ele>
        <time>2011-09-18T20:28:43Z</time>
      </trkpt>
      <trkpt lat="46.07293" lon="3.87281">
        <ele>733</ele>
        <time>2011-09-18T20:28:43Z</time>
      </trkpt>
      <trkpt lat="46.07256" lon="3.87288">
        <ele>738</ele>
        <time>2011-09-18T20:28:43Z</time>
      </trkpt>
      <trkpt lat="46.07186" lon="3.87293">
        <ele>749</ele>
        <time>2011-09-18T20:28:43Z</time>
      </trkpt>
      <trkpt lat="46.07151" lon="3.87277">
        <ele>753</ele>
        <time>2011-09-18T20:28:43Z</time>
      </trkpt>
      <trkpt lat="46.07087" lon="3.87211">
        <ele>756</ele>
        <time>2011-09-18T20:28:43Z</time>
      </trkpt>
      <trkpt lat="46.07057" lon="3.87165">
        <ele>758</ele>
        <time>2011-09-18T20:28:43Z</time>
      </trkpt>
      <trkpt lat="46.07005" lon="3.87057">
        <ele>757</ele>
        <time>2011-09-18T20:28:43Z</time>
      </trkpt>
      <trkpt lat="46.06965" lon="3.86959">
        <ele>753</ele>
        <time>2011-09-18T20:28:43Z</time>
      </trkpt>
      <trkpt lat="46.06917" lon="3.86881">
        <ele>750</ele>
        <time>2011-09-18T20:28:43Z</time>
      </trkpt>
      <trkpt lat="46.06898" lon="3.86844">
        <ele>748</ele>
        <time>2011-09-18T20:28:43Z</time>
      </trkpt>
      <trkpt lat="46.06878" lon="3.8683">
        <ele>746</ele>
        <time>2011-09-18T20:28:43Z</time>
      </trkpt>
      <trkpt lat="46.06821" lon="3.86833">
        <ele>742</ele>
        <time>2011-09-18T20:28:43Z</time>
      </trkpt>
      <trkpt lat="46.06752" lon="3.86856">
        <ele>741</ele>
        <time>2011-09-18T20:28:43Z</time>
      </trkpt>
      <trkpt lat="46.06707" lon="3.8685">
        <ele>739</ele>
        <time>2011-09-18T20:28:43Z</time>
      </trkpt>
      <trkpt lat="46.06685" lon="3.86852">
        <ele>737</ele>
        <time>2011-09-18T20:28:43Z</time>
      </trkpt>
      <trkpt lat="46.06665" lon="3.86852">
        <ele>736</ele>
        <time>2011-09-18T20:28:43Z</time>
      </trkpt>
      <trkpt lat="46.06655" lon="3.86851">
        <ele>735</ele>
        <time>2011-09-18T20:28:43Z</time>
      </trkpt>
      <trkpt lat="46.06676" lon="3.86795">
        <ele>734</ele>
        <time>2011-09-18T20:28:43Z</time>
      </trkpt>
      <trkpt lat="46.06716" lon="3.86742">
        <ele>729</ele>
        <time>2011-09-18T20:28:43Z</time>
      </trkpt>
      <trkpt lat="46.06775" lon="3.86693">
        <ele>722</ele>
        <time>2011-09-18T20:28:43Z</time>
      </trkpt>
      <trkpt lat="46.06817" lon="3.86625">
        <ele>722</ele>
        <time>2011-09-18T20:28:43Z</time>
      </trkpt>
      <trkpt lat="46.06812" lon="3.86534">
        <ele>713</ele>
        <time>2011-09-18T20:28:43Z</time>
      </trkpt>
      <trkpt lat="46.06791" lon="3.86429">
        <ele>701</ele>
        <time>2011-09-18T20:28:43Z</time>
      </trkpt>
      <trkpt lat="46.0679" lon="3.86367">
        <ele>699</ele>
        <time>2011-09-18T20:28:43Z</time>
      </trkpt>
      <trkpt lat="46.06788" lon="3.86307">
        <ele>696</ele>
        <time>2011-09-18T20:28:43Z</time>
      </trkpt>
      <trkpt lat="46.06812" lon="3.86253">
        <ele>693</ele>
        <time>2011-09-18T20:28:43Z</time>
      </trkpt>
      <trkpt lat="46.06853" lon="3.8617">
        <ele>690</ele>
        <time>2011-09-18T20:28:43Z</time>
      </trkpt>
      <trkpt lat="46.06873" lon="3.86045">
        <ele>685</ele>
        <time>2011-09-18T20:28:43Z</time>
      </trkpt>
      <trkpt lat="46.06903" lon="3.85911">
        <ele>672</ele>
        <time>2011-09-18T20:28:43Z</time>
      </trkpt>
      <trkpt lat="46.06918" lon="3.85862">
        <ele>668</ele>
        <time>2011-09-18T20:28:43Z</time>
      </trkpt>
      <trkpt lat="46.0693" lon="3.85755">
        <ele>652</ele>
        <time>2011-09-18T20:28:43Z</time>
      </trkpt>
      <trkpt lat="46.06946" lon="3.85691">
        <ele>648</ele>
        <time>2011-09-18T20:28:43Z</time>
      </trkpt>
      <trkpt lat="46.06966" lon="3.85633">
        <ele>643</ele>
        <time>2011-09-18T20:28:43Z</time>
      </trkpt>
      <trkpt lat="46.06981" lon="3.85627">
        <ele>643</ele>
        <time>2011-09-18T20:28:43Z</time>
      </trkpt>
      <trkpt lat="46.07011" lon="3.85623">
        <ele>642</ele>
        <time>2011-09-18T20:28:43Z</time>
      </trkpt>
      <trkpt lat="46.07069" lon="3.85636">
        <ele>637</ele>
        <time>2011-09-18T20:28:43Z</time>
      </trkpt>
      <trkpt lat="46.07109" lon="3.85641">
        <ele>632</ele>
        <time>2011-09-18T20:28:43Z</time>
      </trkpt>
      <trkpt lat="46.07129" lon="3.85641">
        <ele>631</ele>
        <time>2011-09-18T20:28:43Z</time>
      </trkpt>
      <trkpt lat="46.07137" lon="3.85629">
        <ele>629</ele>
        <time>2011-09-18T20:28:43Z</time>
      </trkpt>
      <trkpt lat="46.07138" lon="3.85595">
        <ele>627</ele>
        <time>2011-09-18T20:28:43Z</time>
      </trkpt>
      <trkpt lat="46.07136" lon="3.85538">
        <ele>626</ele>
        <time>2011-09-18T20:28:43Z</time>
      </trkpt>
      <trkpt lat="46.07149" lon="3.85512">
        <ele>625</ele>
        <time>2011-09-18T20:28:43Z</time>
      </trkpt>
      <trkpt lat="46.07198" lon="3.85462">
        <ele>622</ele>
        <time>2011-09-18T20:28:43Z</time>
      </trkpt>
      <trkpt lat="46.07245" lon="3.85402">
        <ele>610</ele>
        <time>2011-09-18T20:28:43Z</time>
      </trkpt>
      <trkpt lat="46.07276" lon="3.85353">
        <ele>602</ele>
        <time>2011-09-18T20:28:43Z</time>
      </trkpt>
      <trkpt lat="46.0731" lon="3.85331">
        <ele>601</ele>
        <time>2011-09-18T20:28:43Z</time>
      </trkpt>
      <trkpt lat="46.07331" lon="3.85327">
        <ele>602</ele>
        <time>2011-09-18T20:28:43Z</time>
      </trkpt>
      <trkpt lat="46.07352" lon="3.85298">
        <ele>601</ele>
        <time>2011-09-18T20:28:43Z</time>
      </trkpt>
      <trkpt lat="46.07382" lon="3.85264">
        <ele>599</ele>
        <time>2011-09-18T20:28:43Z</time>
      </trkpt>
      <trkpt lat="46.07419" lon="3.85248">
        <ele>602</ele>
        <time>2011-09-18T20:28:43Z</time>
      </trkpt>
      <trkpt lat="46.07462" lon="3.85229">
        <ele>602</ele>
        <time>2011-09-18T20:28:43Z</time>
      </trkpt>
      <trkpt lat="46.07502" lon="3.85207">
        <ele>601</ele>
        <time>2011-09-18T20:28:43Z</time>
      </trkpt>
      <trkpt lat="46.07536" lon="3.85185">
        <ele>597</ele>
        <time>2011-09-18T20:28:43Z</time>
      </trkpt>
      <trkpt lat="46.07562" lon="3.85188">
        <ele>597</ele>
        <time>2011-09-18T20:28:43Z</time>
      </trkpt>
      <trkpt lat="46.07575" lon="3.85188">
        <ele>596</ele>
        <time>2011-09-18T20:28:43Z</time>
      </trkpt>
      <trkpt lat="46.07572" lon="3.85152">
        <ele>593</ele>
        <time>2011-09-18T20:28:43Z</time>
      </trkpt>
      <trkpt lat="46.07566" lon="3.85122">
        <ele>591</ele>
        <time>2011-09-18T20:28:43Z</time>
      </trkpt>
      <trkpt lat="46.07565" lon="3.85101">
        <ele>589</ele>
        <time>2011-09-18T20:28:43Z</time>
      </trkpt>
      <trkpt lat="46.07577" lon="3.85036">
        <ele>591</ele>
        <time>2011-09-18T20:28:43Z</time>
      </trkpt>
      <trkpt lat="46.07595" lon="3.84886">
        <ele>596</ele>
        <time>2011-09-18T20:28:43Z</time>
      </trkpt>
      <trkpt lat="46.07584" lon="3.84799">
        <ele>600</ele>
        <time>2011-09-18T20:28:43Z</time>
      </trkpt>
      <trkpt lat="46.07559" lon="3.84729">
        <ele>599</ele>
        <time>2011-09-18T20:28:43Z</time>
      </trkpt>
      <trkpt lat="46.07535" lon="3.84707">
        <ele>599</ele>
        <time>2011-09-18T20:28:43Z</time>
      </trkpt>
      <trkpt lat="46.07516" lon="3.847">
        <ele>600</ele>
        <time>2011-09-18T20:28:43Z</time>
      </trkpt>
      <trkpt lat="46.07506" lon="3.84701">
        <ele>600</ele>
        <time>2011-09-18T20:28:43Z</time>
      </trkpt>
      <trkpt lat="46.07502" lon="3.84761">
        <ele>601</ele>
        <time>2011-09-18T20:28:43Z</time>
      </trkpt>
      <trkpt lat="46.07488" lon="3.84812">
        <ele>602</ele>
        <time>2011-09-18T20:28:43Z</time>
      </trkpt>
      <trkpt lat="46.07411" lon="3.84868">
        <ele>610</ele>
        <time>2011-09-18T20:28:43Z</time>
      </trkpt>
      <trkpt lat="46.07371" lon="3.84885">
        <ele>616</ele>
        <time>2011-09-18T20:28:43Z</time>
      </trkpt>
      <trkpt lat="46.07319" lon="3.84908">
        <ele>620</ele>
        <time>2011-09-18T20:28:43Z</time>
      </trkpt>
      <trkpt lat="46.07287" lon="3.84947">
        <ele>618</ele>
        <time>2011-09-18T20:28:43Z</time>
      </trkpt>
      <trkpt lat="46.07251" lon="3.84972">
        <ele>618</ele>
        <time>2011-09-18T20:28:43Z</time>
      </trkpt>
      <trkpt lat="46.07206" lon="3.84971">
        <ele>619</ele>
        <time>2011-09-18T20:28:43Z</time>
      </trkpt>
      <trkpt lat="46.07189" lon="3.84969">
        <ele>618</ele>
        <time>2011-09-18T20:28:43Z</time>
      </trkpt>
      <trkpt lat="46.07162" lon="3.84923">
        <ele>616</ele>
        <time>2011-09-18T20:28:43Z</time>
      </trkpt>
      <trkpt lat="46.0715" lon="3.84869">
        <ele>618</ele>
        <time>2011-09-18T20:28:43Z</time>
      </trkpt>
      <trkpt lat="46.071" lon="3.848">
        <ele>617</ele>
        <time>2011-09-18T20:28:43Z</time>
      </trkpt>
      <trkpt lat="46.0707" lon="3.84773">
        <ele>614</ele>
        <time>2011-09-18T20:28:43Z</time>
      </trkpt>
      <trkpt lat="46.07057" lon="3.84749">
        <ele>614</ele>
        <time>2011-09-18T20:28:43Z</time>
      </trkpt>
      <trkpt lat="46.0703" lon="3.84732">
        <ele>618</ele>
        <time>2011-09-18T20:28:43Z</time>
      </trkpt>
      <trkpt lat="46.07025" lon="3.84733">
        <ele>618</ele>
        <time>2011-09-18T20:28:43Z</time>
      </trkpt>
      <trkpt lat="46.07018" lon="3.84762">
        <ele>617</ele>
        <time>2011-09-18T20:28:43Z</time>
      </trkpt>
      <trkpt lat="46.06984" lon="3.84828">
        <ele>626</ele>
        <time>2011-09-18T20:28:43Z</time>
      </trkpt>
      <trkpt lat="46.06956" lon="3.84878">
        <ele>632</ele>
        <time>2011-09-18T20:28:43Z</time>
      </trkpt>
      <trkpt lat="46.06948" lon="3.84886">
        <ele>633</ele>
        <time>2011-09-18T20:28:43Z</time>
      </trkpt>
      <trkpt lat="46.06919" lon="3.84907">
        <ele>638</ele>
        <time>2011-09-18T20:28:43Z</time>
      </trkpt>
      <trkpt lat="46.06891" lon="3.84953">
        <ele>634</ele>
        <time>2011-09-18T20:28:43Z</time>
      </trkpt>
      <trkpt lat="46.06853" lon="3.8499">
        <ele>631</ele>
        <time>2011-09-18T20:28:43Z</time>
      </trkpt>
      <trkpt lat="46.0681" lon="3.8501">
        <ele>627</ele>
        <time>2011-09-18T20:28:43Z</time>
      </trkpt>
      <trkpt lat="46.06768" lon="3.85009">
        <ele>623</ele>
        <time>2011-09-18T20:28:43Z</time>
      </trkpt>
      <trkpt lat="46.06698" lon="3.85009">
        <ele>613</ele>
        <time>2011-09-18T20:28:43Z</time>
      </trkpt>
      <trkpt lat="46.06647" lon="3.85019">
        <ele>603</ele>
        <time>2011-09-18T20:28:43Z</time>
      </trkpt>
      <trkpt lat="46.06612" lon="3.85056">
        <ele>593</ele>
        <time>2011-09-18T20:28:43Z</time>
      </trkpt>
      <trkpt lat="46.0659" lon="3.85075">
        <ele>586</ele>
        <time>2011-09-18T20:28:43Z</time>
      </trkpt>
      <trkpt lat="46.06573" lon="3.85091">
        <ele>580</ele>
        <time>2011-09-18T20:28:43Z</time>
      </trkpt>
      <trkpt lat="46.06557" lon="3.8509">
        <ele>576</ele>
        <time>2011-09-18T20:28:43Z</time>
      </trkpt>
      <trkpt lat="46.06537" lon="3.85038">
        <ele>574</ele>
        <time>2011-09-18T20:28:43Z</time>
      </trkpt>
      <trkpt lat="46.06534" lon="3.85003">
        <ele>575</ele>
        <time>2011-09-18T20:28:43Z</time>
      </trkpt>
      <trkpt lat="46.06525" lon="3.84988">
        <ele>574</ele>
        <time>2011-09-18T20:28:43Z</time>
      </trkpt>
      <trkpt lat="46.06512" lon="3.84966">
        <ele>572</ele>
        <time>2011-09-18T20:28:43Z</time>
      </trkpt>
      <trkpt lat="46.06492" lon="3.84963">
        <ele>575</ele>
        <time>2011-09-18T20:28:43Z</time>
      </trkpt>
      <trkpt lat="46.06443" lon="3.84998">
        <ele>575</ele>
        <time>2011-09-18T20:28:43Z</time>
      </trkpt>
      <trkpt lat="46.0641" lon="3.84999">
        <ele>580</ele>
        <time>2011-09-18T20:28:43Z</time>
      </trkpt>
      <trkpt lat="46.06365" lon="3.85025">
        <ele>584</ele>
        <time>2011-09-18T20:28:43Z</time>
      </trkpt>
      <trkpt lat="46.06324" lon="3.8505">
        <ele>585</ele>
        <time>2011-09-18T20:28:43Z</time>
      </trkpt>
      <trkpt lat="46.06305" lon="3.85062">
        <ele>587</ele>
        <time>2011-09-18T20:28:43Z</time>
      </trkpt>
      <trkpt lat="46.06294" lon="3.85101">
        <ele>585</ele>
        <time>2011-09-18T20:28:43Z</time>
      </trkpt>
      <trkpt lat="46.0629" lon="3.85133">
        <ele>583</ele>
        <time>2011-09-18T20:28:43Z</time>
      </trkpt>
      <trkpt lat="46.06268" lon="3.85173">
        <ele>587</ele>
        <time>2011-09-18T20:28:43Z</time>
      </trkpt>
      <trkpt lat="46.0625" lon="3.85195">
        <ele>590</ele>
        <time>2011-09-18T20:28:43Z</time>
      </trkpt>
      <trkpt lat="46.06241" lon="3.85209">
        <ele>592</ele>
        <time>2011-09-18T20:28:43Z</time>
      </trkpt>
      <trkpt lat="46.06237" lon="3.85211">
        <ele>593</ele>
        <time>2011-09-18T20:28:43Z</time>
      </trkpt>
      <trkpt lat="46.06231" lon="3.85183">
        <ele>593</ele>
        <time>2011-09-18T20:28:43Z</time>
      </trkpt>
      <trkpt lat="46.06227" lon="3.85162">
        <ele>594</ele>
        <time>2011-09-18T20:28:43Z</time>
      </trkpt>
      <trkpt lat="46.06227" lon="3.85136">
        <ele>596</ele>
        <time>2011-09-18T20:28:43Z</time>
      </trkpt>
      <trkpt lat="46.06243" lon="3.85096">
        <ele>599</ele>
        <time>2011-09-18T20:28:43Z</time>
      </trkpt>
      <trkpt lat="46.06224" lon="3.85068">
        <ele>604</ele>
        <time>2011-09-18T20:28:43Z</time>
      </trkpt>
      <trkpt lat="46.06157" lon="3.8496">
        <ele>620</ele>
        <time>2011-09-18T20:28:43Z</time>
      </trkpt>
      <trkpt lat="46.06101" lon="3.84889">
        <ele>621</ele>
        <time>2011-09-18T20:28:43Z</time>
      </trkpt>
      <trkpt lat="46.06065" lon="3.8483">
        <ele>623</ele>
        <time>2011-09-18T20:28:43Z</time>
      </trkpt>
      <trkpt lat="46.06021" lon="3.84788">
        <ele>625</ele>
        <time>2011-09-18T20:28:43Z</time>
      </trkpt>
      <trkpt lat="46.05972" lon="3.84764">
        <ele>631</ele>
        <time>2011-09-18T20:28:43Z</time>
      </trkpt>
      <trkpt lat="46.05944" lon="3.84767">
        <ele>635</ele>
        <time>2011-09-18T20:28:43Z</time>
      </trkpt>
      <trkpt lat="46.0591" lon="3.84787">
        <ele>637</ele>
        <time>2011-09-18T20:28:43Z</time>
      </trkpt>
      <trkpt lat="46.05883" lon="3.84786">
        <ele>642</ele>
        <time>2011-09-18T20:28:43Z</time>
      </trkpt>
      <trkpt lat="46.05855" lon="3.84785">
        <ele>646</ele>
        <time>2011-09-18T20:28:43Z</time>
      </trkpt>
      <trkpt lat="46.05832" lon="3.84814">
        <ele>646</ele>
        <time>2011-09-18T20:28:43Z</time>
      </trkpt>
      <trkpt lat="46.05794" lon="3.84861">
        <ele>647</ele>
        <time>2011-09-18T20:28:43Z</time>
      </trkpt>
      <trkpt lat="46.05768" lon="3.84872">
        <ele>648</ele>
        <time>2011-09-18T20:28:43Z</time>
      </trkpt>
      <trkpt lat="46.0571" lon="3.84896">
        <ele>644</ele>
        <time>2011-09-18T20:28:43Z</time>
      </trkpt>
      <trkpt lat="46.05669" lon="3.84908">
        <ele>643</ele>
        <time>2011-09-18T20:28:43Z</time>
      </trkpt>
      <trkpt lat="46.05637" lon="3.84921">
        <ele>642</ele>
        <time>2011-09-18T20:28:43Z</time>
      </trkpt>
      <trkpt lat="46.05594" lon="3.84939">
        <ele>640</ele>
        <time>2011-09-18T20:28:43Z</time>
      </trkpt>
      <trkpt lat="46.05558" lon="3.84961">
        <ele>637</ele>
        <time>2011-09-18T20:28:43Z</time>
      </trkpt>
      <trkpt lat="46.05527" lon="3.84992">
        <ele>633</ele>
        <time>2011-09-18T20:28:43Z</time>
      </trkpt>
      <trkpt lat="46.05497" lon="3.85035">
        <ele>630</ele>
        <time>2011-09-18T20:28:43Z</time>
      </trkpt>
      <trkpt lat="46.05493" lon="3.85076">
        <ele>627</ele>
        <time>2011-09-18T20:28:43Z</time>
      </trkpt>
      <trkpt lat="46.05482" lon="3.85135">
        <ele>620</ele>
        <time>2011-09-18T20:28:43Z</time>
      </trkpt>
      <trkpt lat="46.05471" lon="3.85201">
        <ele>609</ele>
        <time>2011-09-18T20:28:43Z</time>
      </trkpt>
      <trkpt lat="46.05448" lon="3.85239">
        <ele>601</ele>
        <time>2011-09-18T20:28:43Z</time>
      </trkpt>
      <trkpt lat="46.0541" lon="3.85304">
        <ele>588</ele>
        <time>2011-09-18T20:28:43Z</time>
      </trkpt>
      <trkpt lat="46.05362" lon="3.8533">
        <ele>584</ele>
        <time>2011-09-18T20:28:43Z</time>
      </trkpt>
      <trkpt lat="46.05329" lon="3.85342">
        <ele>578</ele>
        <time>2011-09-18T20:28:43Z</time>
      </trkpt>
      <trkpt lat="46.05289" lon="3.85335">
        <ele>570</ele>
        <time>2011-09-18T20:28:43Z</time>
      </trkpt>
      <trkpt lat="46.05259" lon="3.85313">
        <ele>567</ele>
        <time>2011-09-18T20:28:43Z</time>
      </trkpt>
      <trkpt lat="46.05228" lon="3.85273">
        <ele>568</ele>
        <time>2011-09-18T20:28:43Z</time>
      </trkpt>
      <trkpt lat="46.05208" lon="3.85228">
        <ele>567</ele>
        <time>2011-09-18T20:28:43Z</time>
      </trkpt>
      <trkpt lat="46.05192" lon="3.85213">
        <ele>563</ele>
        <time>2011-09-18T20:28:43Z</time>
      </trkpt>
      <trkpt lat="46.05164" lon="3.85212">
        <ele>555</ele>
        <time>2011-09-18T20:28:43Z</time>
      </trkpt>
      <trkpt lat="46.05133" lon="3.85213">
        <ele>544</ele>
        <time>2011-09-18T20:28:43Z</time>
      </trkpt>
      <trkpt lat="46.05098" lon="3.85233">
        <ele>532</ele>
        <time>2011-09-18T20:28:43Z</time>
      </trkpt>
      <trkpt lat="46.05085" lon="3.85258">
        <ele>529</ele>
        <time>2011-09-18T20:28:43Z</time>
      </trkpt>
      <trkpt lat="46.05064" lon="3.85258">
        <ele>522</ele>
        <time>2011-09-18T20:28:43Z</time>
      </trkpt>
      <trkpt lat="46.05053" lon="3.85225">
        <ele>518</ele>
        <time>2011-09-18T20:28:43Z</time>
      </trkpt>
      <trkpt lat="46.0505" lon="3.85176">
        <ele>518</ele>
        <time>2011-09-18T20:28:43Z</time>
      </trkpt>
      <trkpt lat="46.05039" lon="3.85139">
        <ele>519</ele>
        <time>2011-09-18T20:28:43Z</time>
      </trkpt>
      <trkpt lat="46.05021" lon="3.85132">
        <ele>521</ele>
        <time>2011-09-18T20:28:43Z</time>
      </trkpt>
      <trkpt lat="46.05007" lon="3.85148">
        <ele>524</ele>
        <time>2011-09-18T20:28:43Z</time>
      </trkpt>
      <trkpt lat="46.04992" lon="3.85209">
        <ele>524</ele>
        <time>2011-09-18T20:28:43Z</time>
      </trkpt>
      <trkpt lat="46.04983" lon="3.85231">
        <ele>526</ele>
        <time>2011-09-18T20:28:43Z</time>
      </trkpt>
      <trkpt lat="46.0497" lon="3.85263">
        <ele>521</ele>
        <time>2011-09-18T20:28:43Z</time>
      </trkpt>
      <trkpt lat="46.04941" lon="3.85262">
        <ele>527</ele>
        <time>2011-09-18T20:28:43Z</time>
      </trkpt>
      <trkpt lat="46.04905" lon="3.85261">
        <ele>531</ele>
        <time>2011-09-18T20:28:43Z</time>
      </trkpt>
      <trkpt lat="46.04892" lon="3.85262">
        <ele>531</ele>
        <time>2011-09-18T20:28:43Z</time>
      </trkpt>
      <trkpt lat="46.04867" lon="3.8527">
        <ele>533</ele>
        <time>2011-09-18T20:28:43Z</time>
      </trkpt>
      <trkpt lat="46.04852" lon="3.85299">
        <ele>530</ele>
        <time>2011-09-18T20:28:43Z</time>
      </trkpt>
      <trkpt lat="46.04818" lon="3.85349">
        <ele>519</ele>
        <time>2011-09-18T20:28:43Z</time>
      </trkpt>
      <trkpt lat="46.04786" lon="3.85382">
        <ele>513</ele>
        <time>2011-09-18T20:28:43Z</time>
      </trkpt>
      <trkpt lat="46.04758" lon="3.85394">
        <ele>509</ele>
        <time>2011-09-18T20:28:43Z</time>
      </trkpt>
      <trkpt lat="46.04718" lon="3.85413">
        <ele>504</ele>
        <time>2011-09-18T20:28:43Z</time>
      </trkpt>
      <trkpt lat="46.04699" lon="3.8542">
        <ele>503</ele>
        <time>2011-09-18T20:28:43Z</time>
      </trkpt>
      <trkpt lat="46.04674" lon="3.85449">
        <ele>505</ele>
        <time>2011-09-18T20:28:43Z</time>
      </trkpt>
      <trkpt lat="46.04665" lon="3.85477">
        <ele>505</ele>
        <time>2011-09-18T20:28:43Z</time>
      </trkpt>
      <trkpt lat="46.04655" lon="3.85506">
        <ele>503</ele>
        <time>2011-09-18T20:28:43Z</time>
      </trkpt>
      <trkpt lat="46.04651" lon="3.85522">
        <ele>502</ele>
        <time>2011-09-18T20:28:43Z</time>
      </trkpt>
      <trkpt lat="46.04625" lon="3.85525">
        <ele>503</ele>
        <time>2011-09-18T20:28:43Z</time>
      </trkpt>
      <trkpt lat="46.0458" lon="3.85514">
        <ele>506</ele>
        <time>2011-09-18T20:28:43Z</time>
      </trkpt>
      <trkpt lat="46.04537" lon="3.85529">
        <ele>504</ele>
        <time>2011-09-18T20:28:43Z</time>
      </trkpt>
      <trkpt lat="46.0451" lon="3.85552">
        <ele>503</ele>
        <time>2011-09-18T20:28:43Z</time>
      </trkpt>
      <trkpt lat="46.04486" lon="3.85595">
        <ele>499</ele>
        <time>2011-09-18T20:28:43Z</time>
      </trkpt>
      <trkpt lat="46.04475" lon="3.85622">
        <ele>498</ele>
        <time>2011-09-18T20:28:43Z</time>
      </trkpt>
      <trkpt lat="46.04455" lon="3.85661">
        <ele>499</ele>
        <time>2011-09-18T20:28:43Z</time>
      </trkpt>
      <trkpt lat="46.04443" lon="3.85681">
        <ele>499</ele>
        <time>2011-09-18T20:28:43Z</time>
      </trkpt>
      <trkpt lat="46.04404" lon="3.85714">
        <ele>500</ele>
        <time>2011-09-18T20:28:43Z</time>
      </trkpt>
      <trkpt lat="46.04399" lon="3.85721">
        <ele>500</ele>
        <time>2011-09-18T20:28:43Z</time>
      </trkpt>
      <trkpt lat="46.04446" lon="3.85581">
        <ele>510</ele>
        <time>2011-09-18T20:28:43Z</time>
      </trkpt>
      <trkpt lat="46.04473" lon="3.85513">
        <ele>518</ele>
        <time>2011-09-18T20:28:43Z</time>
      </trkpt>
      <trkpt lat="46.04495" lon="3.85445">
        <ele>532</ele>
        <time>2011-09-18T20:28:43Z</time>
      </trkpt>
      <trkpt lat="46.04507" lon="3.85394">
        <ele>543</ele>
        <time>2011-09-18T20:28:43Z</time>
      </trkpt>
      <trkpt lat="46.04505" lon="3.85357">
        <ele>548</ele>
        <time>2011-09-18T20:28:43Z</time>
      </trkpt>
      <trkpt lat="46.04479" lon="3.85322">
        <ele>555</ele>
        <time>2011-09-18T20:28:43Z</time>
      </trkpt>
      <trkpt lat="46.04429" lon="3.85271">
        <ele>561</ele>
        <time>2011-09-18T20:28:43Z</time>
      </trkpt>
      <trkpt lat="46.04407" lon="3.85257">
        <ele>562</ele>
        <time>2011-09-18T20:28:43Z</time>
      </trkpt>
      <trkpt lat="46.04363" lon="3.85272">
        <ele>566</ele>
        <time>2011-09-18T20:28:43Z</time>
      </trkpt>
      <trkpt lat="46.04335" lon="3.85302">
        <ele>564</ele>
        <time>2011-09-18T20:28:43Z</time>
      </trkpt>
      <trkpt lat="46.04299" lon="3.85293">
        <ele>574</ele>
        <time>2011-09-18T20:28:43Z</time>
      </trkpt>
      <trkpt lat="46.04277" lon="3.85268">
        <ele>580</ele>
        <time>2011-09-18T20:28:43Z</time>
      </trkpt>
      <trkpt lat="46.04251" lon="3.85253">
        <ele>584</ele>
        <time>2011-09-18T20:28:43Z</time>
      </trkpt>
      <trkpt lat="46.04235" lon="3.85252">
        <ele>586</ele>
        <time>2011-09-18T20:28:43Z</time>
      </trkpt>
      <trkpt lat="46.04202" lon="3.85251">
        <ele>591</ele>
        <time>2011-09-18T20:28:43Z</time>
      </trkpt>
      <trkpt lat="46.0417" lon="3.8527">
        <ele>596</ele>
        <time>2011-09-18T20:28:43Z</time>
      </trkpt>
      <trkpt lat="46.0416" lon="3.8527">
        <ele>597</ele>
        <time>2011-09-18T20:28:43Z</time>
      </trkpt>
      <trkpt lat="46.04148" lon="3.85264">
        <ele>599</ele>
        <time>2011-09-18T20:28:43Z</time>
      </trkpt>
      <trkpt lat="46.0414" lon="3.85261">
        <ele>600</ele>
        <time>2011-09-18T20:28:43Z</time>
      </trkpt>
      <trkpt lat="46.04136" lon="3.8524">
        <ele>601</ele>
        <time>2011-09-18T20:28:43Z</time>
      </trkpt>
      <trkpt lat="46.0413" lon="3.8523">
        <ele>601</ele>
        <time>2011-09-18T20:28:43Z</time>
      </trkpt>
      <trkpt lat="46.0411" lon="3.85231">
        <ele>598</ele>
        <time>2011-09-18T20:28:43Z</time>
      </trkpt>
      <trkpt lat="46.04081" lon="3.85221">
        <ele>590</ele>
        <time>2011-09-18T20:28:43Z</time>
      </trkpt>
      <trkpt lat="46.04059" lon="3.85178">
        <ele>587</ele>
        <time>2011-09-18T20:28:43Z</time>
      </trkpt>
      <trkpt lat="46.03989" lon="3.85123">
        <ele>594</ele>
        <time>2011-09-18T20:28:43Z</time>
      </trkpt>
      <trkpt lat="46.03944" lon="3.85092">
        <ele>597</ele>
        <time>2011-09-18T20:28:43Z</time>
      </trkpt>
      <trkpt lat="46.03883" lon="3.85029">
        <ele>590</ele>
        <time>2011-09-18T20:28:43Z</time>
      </trkpt>
      <trkpt lat="46.0384" lon="3.84918">
        <ele>588</ele>
        <time>2011-09-18T20:28:43Z</time>
      </trkpt>
      <trkpt lat="46.03818" lon="3.84856">
        <ele>581</ele>
        <time>2011-09-18T20:28:43Z</time>
      </trkpt>
      <trkpt lat="46.03793" lon="3.84817">
        <ele>577</ele>
        <time>2011-09-18T20:28:43Z</time>
      </trkpt>
      <trkpt lat="46.03757" lon="3.84805">
        <ele>576</ele>
        <time>2011-09-18T20:28:43Z</time>
      </trkpt>
      <trkpt lat="46.03725" lon="3.84805">
        <ele>581</ele>
        <time>2011-09-18T20:28:43Z</time>
      </trkpt>
      <trkpt lat="46.037" lon="3.84839">
        <ele>582</ele>
        <time>2011-09-18T20:28:43Z</time>
      </trkpt>
      <trkpt lat="46.03652" lon="3.84897">
        <ele>586</ele>
        <time>2011-09-18T20:28:43Z</time>
      </trkpt>
      <trkpt lat="46.03633" lon="3.84955">
        <ele>584</ele>
        <time>2011-09-18T20:28:43Z</time>
      </trkpt>
      <trkpt lat="46.03626" lon="3.84987">
        <ele>587</ele>
        <time>2011-09-18T20:28:43Z</time>
      </trkpt>
      <trkpt lat="46.0365" lon="3.85096">
        <ele>584</ele>
        <time>2011-09-18T20:28:43Z</time>
      </trkpt>
      <trkpt lat="46.03673" lon="3.85174">
        <ele>583</ele>
        <time>2011-09-18T20:28:43Z</time>
      </trkpt>
      <trkpt lat="46.03685" lon="3.85226">
        <ele>584</ele>
        <time>2011-09-18T20:28:43Z</time>
      </trkpt>
      <trkpt lat="46.03683" lon="3.85258">
        <ele>590</ele>
        <time>2011-09-18T20:28:43Z</time>
      </trkpt>
      <trkpt lat="46.03683" lon="3.85266">
        <ele>590</ele>
        <time>2011-09-18T20:28:43Z</time>
      </trkpt>
      <trkpt lat="46.0365" lon="3.85285">
        <ele>597</ele>
        <time>2011-09-18T20:28:43Z</time>
      </trkpt>
      <trkpt lat="46.0363" lon="3.85271">
        <ele>604</ele>
        <time>2011-09-18T20:28:43Z</time>
      </trkpt>
      <trkpt lat="46.03622" lon="3.85273">
        <ele>605</ele>
        <time>2011-09-18T20:28:43Z</time>
      </trkpt>
      <trkpt lat="46.03599" lon="3.85272">
        <ele>610</ele>
        <time>2011-09-18T20:28:43Z</time>
      </trkpt>
      <trkpt lat="46.03585" lon="3.85272">
        <ele>612</ele>
        <time>2011-09-18T20:28:43Z</time>
      </trkpt>
      <trkpt lat="46.03583" lon="3.85304">
        <ele>610</ele>
        <time>2011-09-18T20:28:43Z</time>
      </trkpt>
      <trkpt lat="46.03582" lon="3.85375">
        <ele>612</ele>
        <time>2011-09-18T20:28:43Z</time>
      </trkpt>
      <trkpt lat="46.03586" lon="3.85391">
        <ele>611</ele>
        <time>2011-09-18T20:28:43Z</time>
      </trkpt>
      <trkpt lat="46.03566" lon="3.85453">
        <ele>619</ele>
        <time>2011-09-18T20:28:43Z</time>
      </trkpt>
      <trkpt lat="46.03561" lon="3.85474">
        <ele>618</ele>
        <time>2011-09-18T20:28:43Z</time>
      </trkpt>
      <trkpt lat="46.03541" lon="3.85504">
        <ele>620</ele>
        <time>2011-09-18T20:28:43Z</time>
      </trkpt>
      <trkpt lat="46.03534" lon="3.85509">
        <ele>621</ele>
        <time>2011-09-18T20:28:43Z</time>
      </trkpt>
      <trkpt lat="46.03517" lon="3.85518">
        <ele>620</ele>
        <time>2011-09-18T20:28:43Z</time>
      </trkpt>
      <trkpt lat="46.035" lon="3.85521">
        <ele>620</ele>
        <time>2011-09-18T20:28:43Z</time>
      </trkpt>
      <trkpt lat="46.03472" lon="3.85515">
        <ele>621</ele>
        <time>2011-09-18T20:28:43Z</time>
      </trkpt>
      <trkpt lat="46.03459" lon="3.85512">
        <ele>622</ele>
        <time>2011-09-18T20:28:43Z</time>
      </trkpt>
      <trkpt lat="46.03443" lon="3.85515">
        <ele>621</ele>
        <time>2011-09-18T20:28:43Z</time>
      </trkpt>
      <trkpt lat="46.0343" lon="3.85522">
        <ele>624</ele>
        <time>2011-09-18T20:28:43Z</time>
      </trkpt>
      <trkpt lat="46.03409" lon="3.85557">
        <ele>626</ele>
        <time>2011-09-18T20:28:43Z</time>
      </trkpt>
      <trkpt lat="46.03377" lon="3.85587">
        <ele>631</ele>
        <time>2011-09-18T20:28:43Z</time>
      </trkpt>
      <trkpt lat="46.03352" lon="3.85614">
        <ele>631</ele>
        <time>2011-09-18T20:28:43Z</time>
      </trkpt>
      <trkpt lat="46.03315" lon="3.85611">
        <ele>639</ele>
        <time>2011-09-18T20:28:43Z</time>
      </trkpt>
      <trkpt lat="46.03286" lon="3.8561">
        <ele>642</ele>
        <time>2011-09-18T20:28:43Z</time>
      </trkpt>
      <trkpt lat="46.03252" lon="3.85626">
        <ele>643</ele>
        <time>2011-09-18T20:28:43Z</time>
      </trkpt>
      <trkpt lat="46.03231" lon="3.85659">
        <ele>641</ele>
        <time>2011-09-18T20:28:43Z</time>
      </trkpt>
      <trkpt lat="46.03214" lon="3.85709">
        <ele>637</ele>
        <time>2011-09-18T20:28:43Z</time>
      </trkpt>
      <trkpt lat="46.03197" lon="3.85736">
        <ele>639</ele>
        <time>2011-09-18T20:28:43Z</time>
      </trkpt>
      <trkpt lat="46.03176" lon="3.85753">
        <ele>642</ele>
        <time>2011-09-18T20:28:43Z</time>
      </trkpt>
      <trkpt lat="46.03157" lon="3.8577">
        <ele>643</ele>
        <time>2011-09-18T20:28:43Z</time>
      </trkpt>
      <trkpt lat="46.03151" lon="3.85789">
        <ele>643</ele>
        <time>2011-09-18T20:28:43Z</time>
      </trkpt>
      <trkpt lat="46.03141" lon="3.85824">
        <ele>641</ele>
        <time>2011-09-18T20:28:43Z</time>
      </trkpt>
      <trkpt lat="46.03141" lon="3.85854">
        <ele>639</ele>
        <time>2011-09-18T20:28:43Z</time>
      </trkpt>
      <trkpt lat="46.03151" lon="3.85894">
        <ele>636</ele>
        <time>2011-09-18T20:28:43Z</time>
      </trkpt>
      <trkpt lat="46.03163" lon="3.85919">
        <ele>636</ele>
        <time>2011-09-18T20:28:43Z</time>
      </trkpt>
      <trkpt lat="46.03197" lon="3.85955">
        <ele>633</ele>
        <time>2011-09-18T20:28:43Z</time>
      </trkpt>
      <trkpt lat="46.03234" lon="3.85963">
        <ele>630</ele>
        <time>2011-09-18T20:28:43Z</time>
      </trkpt>
      <trkpt lat="46.03278" lon="3.85988">
        <ele>629</ele>
        <time>2011-09-18T20:28:43Z</time>
      </trkpt>
      <trkpt lat="46.03308" lon="3.8601">
        <ele>629</ele>
        <time>2011-09-18T20:28:43Z</time>
      </trkpt>
      <trkpt lat="46.03326" lon="3.86044">
        <ele>626</ele>
        <time>2011-09-18T20:28:43Z</time>
      </trkpt>
      <trkpt lat="46.03329" lon="3.86082">
        <ele>623</ele>
        <time>2011-09-18T20:28:43Z</time>
      </trkpt>
      <trkpt lat="46.03329" lon="3.86112">
        <ele>621</ele>
        <time>2011-09-18T20:28:43Z</time>
      </trkpt>
      <trkpt lat="46.03322" lon="3.86169">
        <ele>618</ele>
        <time>2011-09-18T20:28:43Z</time>
      </trkpt>
      <trkpt lat="46.03318" lon="3.86191">
        <ele>618</ele>
        <time>2011-09-18T20:28:43Z</time>
      </trkpt>
      <trkpt lat="46.03334" lon="3.86255">
        <ele>610</ele>
        <time>2011-09-18T20:28:43Z</time>
      </trkpt>
      <trkpt lat="46.03367" lon="3.86315">
        <ele>604</ele>
        <time>2011-09-18T20:28:43Z</time>
      </trkpt>
      <trkpt lat="46.03402" lon="3.8636">
        <ele>603</ele>
        <time>2011-09-18T20:28:43Z</time>
      </trkpt>
      <trkpt lat="46.03395" lon="3.864">
        <ele>603</ele>
        <time>2011-09-18T20:28:43Z</time>
      </trkpt>
      <trkpt lat="46.03363" lon="3.86394">
        <ele>599</ele>
        <time>2011-09-18T20:28:43Z</time>
      </trkpt>
      <trkpt lat="46.0333" lon="3.86387">
        <ele>594</ele>
        <time>2011-09-18T20:28:43Z</time>
      </trkpt>
      <trkpt lat="46.03293" lon="3.86383">
        <ele>587</ele>
        <time>2011-09-18T20:28:43Z</time>
      </trkpt>
      <trkpt lat="46.03288" lon="3.86384">
        <ele>587</ele>
        <time>2011-09-18T20:28:43Z</time>
      </trkpt>
      <trkpt lat="46.03288" lon="3.86399">
        <ele>584</ele>
        <time>2011-09-18T20:28:43Z</time>
      </trkpt>
      <trkpt lat="46.03288" lon="3.86405">
        <ele>583</ele>
        <time>2011-09-18T20:28:43Z</time>
      </trkpt>
      <trkpt lat="46.03311" lon="3.86436">
        <ele>583</ele>
        <time>2011-09-18T20:28:43Z</time>
      </trkpt>
      <trkpt lat="46.03314" lon="3.86451">
        <ele>582</ele>
        <time>2011-09-18T20:28:43Z</time>
      </trkpt>
      <trkpt lat="46.03317" lon="3.86495">
        <ele>579</ele>
        <time>2011-09-18T20:28:43Z</time>
      </trkpt>
      <trkpt lat="46.03313" lon="3.86525">
        <ele>576</ele>
        <time>2011-09-18T20:28:43Z</time>
      </trkpt>
      <trkpt lat="46.03313" lon="3.8655">
        <ele>573</ele>
        <time>2011-09-18T20:28:43Z</time>
      </trkpt>
      <trkpt lat="46.03313" lon="3.86554">
        <ele>571</ele>
        <time>2011-09-18T20:28:43Z</time>
      </trkpt>
      <trkpt lat="46.03298" lon="3.86565">
        <ele>564</ele>
        <time>2011-09-18T20:28:43Z</time>
      </trkpt>
      <trkpt lat="46.03284" lon="3.86547">
        <ele>562</ele>
        <time>2011-09-18T20:28:43Z</time>
      </trkpt>
      <trkpt lat="46.03235" lon="3.86491">
        <ele>551</ele>
        <time>2011-09-18T20:28:43Z</time>
      </trkpt>
      <trkpt lat="46.03201" lon="3.86472">
        <ele>546</ele>
        <time>2011-09-18T20:28:43Z</time>
      </trkpt>
      <trkpt lat="46.03175" lon="3.86476">
        <ele>541</ele>
        <time>2011-09-18T20:28:43Z</time>
      </trkpt>
      <trkpt lat="46.0315" lon="3.86488">
        <ele>537</ele>
        <time>2011-09-18T20:28:43Z</time>
      </trkpt>
      <trkpt lat="46.03137" lon="3.86511">
        <ele>535</ele>
        <time>2011-09-18T20:28:43Z</time>
      </trkpt>
      <trkpt lat="46.03131" lon="3.8658">
        <ele>518</ele>
        <time>2011-09-18T20:28:43Z</time>
      </trkpt>
      <trkpt lat="46.03131" lon="3.86593">
        <ele>514</ele>
        <time>2011-09-18T20:28:43Z</time>
      </trkpt>
      <trkpt lat="46.03114" lon="3.86607">
        <ele>512</ele>
        <time>2011-09-18T20:28:43Z</time>
      </trkpt>
      <trkpt lat="46.0308" lon="3.86616">
        <ele>513</ele>
        <time>2011-09-18T20:28:43Z</time>
      </trkpt>
      <trkpt lat="46.03043" lon="3.86644">
        <ele>510</ele>
        <time>2011-09-18T20:28:43Z</time>
      </trkpt>
      <trkpt lat="46.03011" lon="3.86656">
        <ele>511</ele>
        <time>2011-09-18T20:28:43Z</time>
      </trkpt>
      <trkpt lat="46.02993" lon="3.86678">
        <ele>511</ele>
        <time>2011-09-18T20:28:43Z</time>
      </trkpt>
      <trkpt lat="46.02992" lon="3.86713">
        <ele>510</ele>
        <time>2011-09-18T20:28:43Z</time>
      </trkpt>
      <trkpt lat="46.02975" lon="3.86769">
        <ele>516</ele>
        <time>2011-09-18T20:28:43Z</time>
      </trkpt>
      <trkpt lat="46.0295" lon="3.86816">
        <ele>520</ele>
        <time>2011-09-18T20:28:43Z</time>
      </trkpt>
      <trkpt lat="46.02922" lon="3.86837">
        <ele>520</ele>
        <time>2011-09-18T20:28:43Z</time>
      </trkpt>
      <trkpt lat="46.02898" lon="3.86851">
        <ele>521</ele>
        <time>2011-09-18T20:28:43Z</time>
      </trkpt>
      <trkpt lat="46.02863" lon="3.86862">
        <ele>524</ele>
        <time>2011-09-18T20:28:43Z</time>
      </trkpt>
      <trkpt lat="46.02832" lon="3.86843">
        <ele>520</ele>
        <time>2011-09-18T20:28:43Z</time>
      </trkpt>
      <trkpt lat="46.02796" lon="3.86829">
        <ele>518</ele>
        <time>2011-09-18T20:28:43Z</time>
      </trkpt>
      <trkpt lat="46.02771" lon="3.86823">
        <ele>519</ele>
        <time>2011-09-18T20:28:43Z</time>
      </trkpt>
      <trkpt lat="46.02751" lon="3.86824">
        <ele>520</ele>
        <time>2011-09-18T20:28:43Z</time>
      </trkpt>
      <trkpt lat="46.02717" lon="3.86857">
        <ele>525</ele>
        <time>2011-09-18T20:28:43Z</time>
      </trkpt>
      <trkpt lat="46.02693" lon="3.86878">
        <ele>531</ele>
        <time>2011-09-18T20:28:43Z</time>
      </trkpt>
      <trkpt lat="46.0266" lon="3.86903">
        <ele>534</ele>
        <time>2011-09-18T20:28:43Z</time>
      </trkpt>
      <trkpt lat="46.02635" lon="3.86907">
        <ele>532</ele>
        <time>2011-09-18T20:28:43Z</time>
      </trkpt>
      <trkpt lat="46.02612" lon="3.8694">
        <ele>539</ele>
        <time>2011-09-18T20:28:43Z</time>
      </trkpt>
      <trkpt lat="46.02589" lon="3.86973">
        <ele>545</ele>
        <time>2011-09-18T20:28:43Z</time>
      </trkpt>
      <trkpt lat="46.02586" lon="3.87007">
        <ele>554</ele>
        <time>2011-09-18T20:28:43Z</time>
      </trkpt>
      <trkpt lat="46.02599" lon="3.87041">
        <ele>566</ele>
        <time>2011-09-18T20:28:43Z</time>
      </trkpt>
      <trkpt lat="46.02604" lon="3.87066">
        <ele>572</ele>
        <time>2011-09-18T20:28:43Z</time>
      </trkpt>
      <trkpt lat="46.02604" lon="3.87085">
        <ele>575</ele>
        <time>2011-09-18T20:28:43Z</time>
      </trkpt>
      <trkpt lat="46.02614" lon="3.87098">
        <ele>576</ele>
        <time>2011-09-18T20:28:43Z</time>
      </trkpt>
      <trkpt lat="46.02645" lon="3.87132">
        <ele>589</ele>
        <time>2011-09-18T20:28:43Z</time>
      </trkpt>
      <trkpt lat="46.02659" lon="3.87156">
        <ele>592</ele>
        <time>2011-09-18T20:28:43Z</time>
      </trkpt>
      <trkpt lat="46.02673" lon="3.87184">
        <ele>602</ele>
        <time>2011-09-18T20:28:43Z</time>
      </trkpt>
      <trkpt lat="46.02674" lon="3.87186">
        <ele>603</ele>
        <time>2011-09-18T20:28:43Z</time>
      </trkpt>
      <trkpt lat="46.02648" lon="3.87183">
        <ele>600</ele>
        <time>2011-09-18T20:28:43Z</time>
      </trkpt>
      <trkpt lat="46.02618" lon="3.87163">
        <ele>598</ele>
        <time>2011-09-18T20:28:43Z</time>
      </trkpt>
      <trkpt lat="46.02599" lon="3.87164">
        <ele>601</ele>
        <time>2011-09-18T20:28:43Z</time>
      </trkpt>
      <trkpt lat="46.02572" lon="3.87163">
        <ele>604</ele>
        <time>2011-09-18T20:28:43Z</time>
      </trkpt>
      <trkpt lat="46.02602" lon="3.87192">
        <ele>611</ele>
        <time>2011-09-18T20:28:43Z</time>
      </trkpt>
      <trkpt lat="46.02643" lon="3.87224">
        <ele>615</ele>
        <time>2011-09-18T20:28:43Z</time>
      </trkpt>
      <trkpt lat="46.02671" lon="3.87242">
        <ele>618</ele>
        <time>2011-09-18T20:28:43Z</time>
      </trkpt>
      <trkpt lat="46.02717" lon="3.87282">
        <ele>631</ele>
        <time>2011-09-18T20:28:43Z</time>
      </trkpt>
      <trkpt lat="46.02722" lon="3.87282">
        <ele>632</ele>
        <time>2011-09-18T20:28:43Z</time>
      </trkpt>
      <trkpt lat="46.02741" lon="3.87257">
        <ele>633</ele>
        <time>2011-09-18T20:28:43Z</time>
      </trkpt>
      <trkpt lat="46.02745" lon="3.87178">
        <ele>626</ele>
        <time>2011-09-18T20:28:43Z</time>
      </trkpt>
      <trkpt lat="46.02748" lon="3.8713">
        <ele>620</ele>
        <time>2011-09-18T20:28:43Z</time>
      </trkpt>
      <trkpt lat="46.0286" lon="3.87141">
        <ele>638</ele>
        <time>2011-09-18T20:28:43Z</time>
      </trkpt>
      <trkpt lat="46.02921" lon="3.87143">
        <ele>645</ele>
        <time>2011-09-18T20:28:43Z</time>
      </trkpt>
      <trkpt lat="46.03006" lon="3.87122">
        <ele>652</ele>
        <time>2011-09-18T20:28:43Z</time>
      </trkpt>
      <trkpt lat="46.03078" lon="3.87116">
        <ele>661</ele>
        <time>2011-09-18T20:28:43Z</time>
      </trkpt>
      <trkpt lat="46.03114" lon="3.87138">
        <ele>667</ele>
        <time>2011-09-18T20:28:43Z</time>
      </trkpt>
      <trkpt lat="46.03141" lon="3.87187">
        <ele>678</ele>
        <time>2011-09-18T20:28:43Z</time>
      </trkpt>
      <trkpt lat="46.0317" lon="3.87238">
        <ele>688</ele>
        <time>2011-09-18T20:28:43Z</time>
      </trkpt>
      <trkpt lat="46.03213" lon="3.87286">
        <ele>697</ele>
        <time>2011-09-18T20:28:43Z</time>
      </trkpt>
      <trkpt lat="46.03269" lon="3.87309">
        <ele>698</ele>
        <time>2011-09-18T20:28:43Z</time>
      </trkpt>
      <trkpt lat="46.03326" lon="3.87343">
        <ele>708</ele>
        <time>2011-09-18T20:28:43Z</time>
      </trkpt>
      <trkpt lat="46.03378" lon="3.87354">
        <ele>708</ele>
        <time>2011-09-18T20:28:43Z</time>
      </trkpt>
      <trkpt lat="46.03408" lon="3.87379">
        <ele>710</ele>
        <time>2011-09-18T20:28:43Z</time>
      </trkpt>
      <trkpt lat="46.03458" lon="3.87437">
        <ele>709</ele>
        <time>2011-09-18T20:28:43Z</time>
      </trkpt>
      <trkpt lat="46.03492" lon="3.87478">
        <ele>705</ele>
        <time>2011-09-18T20:28:43Z</time>
      </trkpt>
      <trkpt lat="46.0354" lon="3.87564">
        <ele>712</ele>
        <time>2011-09-18T20:28:43Z</time>
      </trkpt>
      <trkpt lat="46.03579" lon="3.87592">
        <ele>714</ele>
        <time>2011-09-18T20:28:43Z</time>
      </trkpt>
      <trkpt lat="46.03616" lon="3.87595">
        <ele>710</ele>
        <time>2011-09-18T20:28:43Z</time>
      </trkpt>
      <trkpt lat="46.03651" lon="3.87618">
        <ele>710</ele>
        <time>2011-09-18T20:28:43Z</time>
      </trkpt>
      <trkpt lat="46.0365" lon="3.87749">
        <ele>715</ele>
        <time>2011-09-18T20:28:43Z</time>
      </trkpt>
      <trkpt lat="46.03626" lon="3.87782">
        <ele>720</ele>
        <time>2011-09-18T20:28:43Z</time>
      </trkpt>
      <trkpt lat="46.03616" lon="3.87858">
        <ele>716</ele>
        <time>2011-09-18T20:28:43Z</time>
      </trkpt>
      <trkpt lat="46.03621" lon="3.87955">
        <ele>710</ele>
        <time>2011-09-18T20:28:43Z</time>
      </trkpt>
      <trkpt lat="46.0363" lon="3.88017">
        <ele>707</ele>
        <time>2011-09-18T20:28:43Z</time>
      </trkpt>
      <trkpt lat="46.03661" lon="3.88079">
        <ele>699</ele>
        <time>2011-09-18T20:28:43Z</time>
      </trkpt>
      <trkpt lat="46.03685" lon="3.88133">
        <ele>694</ele>
        <time>2011-09-18T20:28:43Z</time>
      </trkpt>
      <trkpt lat="46.03701" lon="3.88166">
        <ele>691</ele>
        <time>2011-09-18T20:28:43Z</time>
      </trkpt>
      <trkpt lat="46.03722" lon="3.88231">
        <ele>684</ele>
        <time>2011-09-18T20:28:43Z</time>
      </trkpt>
      <trkpt lat="46.0372" lon="3.88254">
        <ele>682</ele>
        <time>2011-09-18T20:28:43Z</time>
      </trkpt>
      <trkpt lat="46.03712" lon="3.88287">
        <ele>680</ele>
        <time>2011-09-18T20:28:43Z</time>
      </trkpt>
      <trkpt lat="46.03685" lon="3.88315">
        <ele>676</ele>
        <time>2011-09-18T20:28:43Z</time>
      </trkpt>
      <trkpt lat="46.03632" lon="3.88332">
        <ele>669</ele>
        <time>2011-09-18T20:28:43Z</time>
      </trkpt>
      <trkpt lat="46.03614" lon="3.88346">
        <ele>666</ele>
        <time>2011-09-18T20:28:43Z</time>
      </trkpt>
      <trkpt lat="46.03596" lon="3.88366">
        <ele>661</ele>
        <time>2011-09-18T20:28:43Z</time>
      </trkpt>
      <trkpt lat="46.03556" lon="3.88351">
        <ele>663</ele>
        <time>2011-09-18T20:28:43Z</time>
      </trkpt>
      <trkpt lat="46.03534" lon="3.88342">
        <ele>664</ele>
        <time>2011-09-18T20:28:43Z</time>
      </trkpt>
      <trkpt lat="46.03515" lon="3.88335">
        <ele>666</ele>
        <time>2011-09-18T20:28:43Z</time>
      </trkpt>
      <trkpt lat="46.03498" lon="3.88336">
        <ele>665</ele>
        <time>2011-09-18T20:28:43Z</time>
      </trkpt>
      <trkpt lat="46.03495" lon="3.88355">
        <ele>657</ele>
        <time>2011-09-18T20:28:43Z</time>
      </trkpt>
      <trkpt lat="46.03536" lon="3.88437">
        <ele>659</ele>
        <time>2011-09-18T20:28:43Z</time>
      </trkpt>
      <trkpt lat="46.03553" lon="3.88454">
        <ele>657</ele>
        <time>2011-09-18T20:28:43Z</time>
      </trkpt>
      <trkpt lat="46.03579" lon="3.8849">
        <ele>657</ele>
        <time>2011-09-18T20:28:43Z</time>
      </trkpt>
      <trkpt lat="46.03609" lon="3.8852">
        <ele>652</ele>
        <time>2011-09-18T20:28:43Z</time>
      </trkpt>
      <trkpt lat="46.03634" lon="3.88543">
        <ele>646</ele>
        <time>2011-09-18T20:28:43Z</time>
      </trkpt>
      <trkpt lat="46.03644" lon="3.88558">
        <ele>646</ele>
        <time>2011-09-18T20:28:43Z</time>
      </trkpt>
      <trkpt lat="46.03639" lon="3.88573">
        <ele>651</ele>
        <time>2011-09-18T20:28:43Z</time>
      </trkpt>
      <trkpt lat="46.03618" lon="3.88559">
        <ele>658</ele>
        <time>2011-09-18T20:28:43Z</time>
      </trkpt>
      <trkpt lat="46.03589" lon="3.88542">
        <ele>667</ele>
        <time>2011-09-18T20:28:43Z</time>
      </trkpt>
      <trkpt lat="46.03566" lon="3.88524">
        <ele>672</ele>
        <time>2011-09-18T20:28:43Z</time>
      </trkpt>
      <trkpt lat="46.03543" lon="3.88496">
        <ele>675</ele>
        <time>2011-09-18T20:28:43Z</time>
      </trkpt>
      <trkpt lat="46.03525" lon="3.88464">
        <ele>673</ele>
        <time>2011-09-18T20:28:43Z</time>
      </trkpt>
      <trkpt lat="46.035" lon="3.88431">
        <ele>676</ele>
        <time>2011-09-18T20:28:43Z</time>
      </trkpt>
      <trkpt lat="46.03452" lon="3.88399">
        <ele>680</ele>
        <time>2011-09-18T20:28:43Z</time>
      </trkpt>
      <trkpt lat="46.03387" lon="3.88362">
        <ele>684</ele>
        <time>2011-09-18T20:28:43Z</time>
      </trkpt>
      <trkpt lat="46.03321" lon="3.88325">
        <ele>691</ele>
        <time>2011-09-18T20:28:43Z</time>
      </trkpt>
      <trkpt lat="46.03244" lon="3.88297">
        <ele>702</ele>
        <time>2011-09-18T20:28:43Z</time>
      </trkpt>
      <trkpt lat="46.0319" lon="3.88281">
        <ele>711</ele>
        <time>2011-09-18T20:28:43Z</time>
      </trkpt>
      <trkpt lat="46.03148" lon="3.8827">
        <ele>719</ele>
        <time>2011-09-18T20:28:43Z</time>
      </trkpt>
      <trkpt lat="46.03127" lon="3.88259">
        <ele>723</ele>
        <time>2011-09-18T20:28:43Z</time>
      </trkpt>
      <trkpt lat="46.03108" lon="3.88257">
        <ele>727</ele>
        <time>2011-09-18T20:28:43Z</time>
      </trkpt>
      <trkpt lat="46.03108" lon="3.88296">
        <ele>728</ele>
        <time>2011-09-18T20:28:43Z</time>
      </trkpt>
      <trkpt lat="46.03122" lon="3.88342">
        <ele>730</ele>
        <time>2011-09-18T20:28:43Z</time>
      </trkpt>
      <trkpt lat="46.03139" lon="3.88371">
        <ele>731</ele>
        <time>2011-09-18T20:28:43Z</time>
      </trkpt>
      <trkpt lat="46.0316" lon="3.88406">
        <ele>733</ele>
        <time>2011-09-18T20:28:43Z</time>
      </trkpt>
      <trkpt lat="46.03198" lon="3.88455">
        <ele>734</ele>
        <time>2011-09-18T20:28:43Z</time>
      </trkpt>
      <trkpt lat="46.03217" lon="3.88486">
        <ele>736</ele>
        <time>2011-09-18T20:28:43Z</time>
      </trkpt>
      <trkpt lat="46.03231" lon="3.88514">
        <ele>739</ele>
        <time>2011-09-18T20:28:43Z</time>
      </trkpt>
      <trkpt lat="46.0323" lon="3.88519">
        <ele>740</ele>
        <time>2011-09-18T20:28:43Z</time>
      </trkpt>
      <trkpt lat="46.03177" lon="3.88509">
        <ele>746</ele>
        <time>2011-09-18T20:28:43Z</time>
      </trkpt>
      <trkpt lat="46.03092" lon="3.88491">
        <ele>757</ele>
        <time>2011-09-18T20:28:43Z</time>
      </trkpt>
      <trkpt lat="46.03019" lon="3.88466">
        <ele>766</ele>
        <time>2011-09-18T20:28:43Z</time>
      </trkpt>
      <trkpt lat="46.02974" lon="3.88446">
        <ele>773</ele>
        <time>2011-09-18T20:28:43Z</time>
      </trkpt>
      <trkpt lat="46.02915" lon="3.88391">
        <ele>777</ele>
        <time>2011-09-18T20:28:43Z</time>
      </trkpt>
      <trkpt lat="46.02863" lon="3.88318">
        <ele>785</ele>
        <time>2011-09-18T20:28:43Z</time>
      </trkpt>
      <trkpt lat="46.02829" lon="3.88269">
        <ele>790</ele>
        <time>2011-09-18T20:28:43Z</time>
      </trkpt>
      <trkpt lat="46.02799" lon="3.88234">
        <ele>793</ele>
        <time>2011-09-18T20:28:43Z</time>
      </trkpt>
      <trkpt lat="46.02782" lon="3.88219">
        <ele>794</ele>
        <time>2011-09-18T20:28:43Z</time>
      </trkpt>
      <trkpt lat="46.02796" lon="3.88311">
        <ele>799</ele>
        <time>2011-09-18T20:28:43Z</time>
      </trkpt>
      <trkpt lat="46.02811" lon="3.8838">
        <ele>804</ele>
        <time>2011-09-18T20:28:43Z</time>
      </trkpt>
      <trkpt lat="46.02835" lon="3.88501">
        <ele>814</ele>
        <time>2011-09-18T20:28:43Z</time>
      </trkpt>
      <trkpt lat="46.02854" lon="3.8857">
        <ele>816</ele>
        <time>2011-09-18T20:28:43Z</time>
      </trkpt>
      <trkpt lat="46.02885" lon="3.88666">
        <ele>814</ele>
        <time>2011-09-18T20:28:43Z</time>
      </trkpt>
      <trkpt lat="46.0289" lon="3.88698">
        <ele>814</ele>
        <time>2011-09-18T20:28:43Z</time>
      </trkpt>
      <trkpt lat="46.02893" lon="3.88718">
        <ele>814</ele>
        <time>2011-09-18T20:28:43Z</time>
      </trkpt>
      <trkpt lat="46.02944" lon="3.88737">
        <ele>817</ele>
        <time>2011-09-18T20:28:43Z</time>
      </trkpt>
      <trkpt lat="46.02974" lon="3.88738">
        <ele>818</ele>
        <time>2011-09-18T20:28:43Z</time>
      </trkpt>
      <trkpt lat="46.02989" lon="3.88748">
        <ele>818</ele>
        <time>2011-09-18T20:28:43Z</time>
      </trkpt>
      <trkpt lat="46.02988" lon="3.88763">
        <ele>818</ele>
        <time>2011-09-18T20:28:43Z</time>
      </trkpt>
      <trkpt lat="46.02971" lon="3.88765">
        <ele>817</ele>
        <time>2011-09-18T20:28:43Z</time>
      </trkpt>
      <trkpt lat="46.02933" lon="3.88758">
        <ele>814</ele>
        <time>2011-09-18T20:28:43Z</time>
      </trkpt>
      <trkpt lat="46.02911" lon="3.88754">
        <ele>813</ele>
        <time>2011-09-18T20:28:43Z</time>
      </trkpt>
      <trkpt lat="46.02885" lon="3.88745">
        <ele>812</ele>
        <time>2011-09-18T20:28:43Z</time>
      </trkpt>
      <trkpt lat="46.02858" lon="3.88749">
        <ele>810</ele>
        <time>2011-09-18T20:28:43Z</time>
      </trkpt>
      <trkpt lat="46.02827" lon="3.88763">
        <ele>809</ele>
        <time>2011-09-18T20:28:43Z</time>
      </trkpt>
      <trkpt lat="46.02799" lon="3.88772">
        <ele>808</ele>
        <time>2011-09-18T20:28:43Z</time>
      </trkpt>
      <trkpt lat="46.0276" lon="3.88811">
        <ele>804</ele>
        <time>2011-09-18T20:28:43Z</time>
      </trkpt>
      <trkpt lat="46.02737" lon="3.88836">
        <ele>804</ele>
        <time>2011-09-18T20:28:43Z</time>
      </trkpt>
      <trkpt lat="46.02721" lon="3.88868">
        <ele>804</ele>
        <time>2011-09-18T20:28:43Z</time>
      </trkpt>
      <trkpt lat="46.02703" lon="3.88929">
        <ele>805</ele>
        <time>2011-09-18T20:28:43Z</time>
      </trkpt>
      <trkpt lat="46.0269" lon="3.88964">
        <ele>806</ele>
        <time>2011-09-18T20:28:43Z</time>
      </trkpt>
      <trkpt lat="46.02689" lon="3.88967">
        <ele>806</ele>
        <time>2011-09-18T20:28:43Z</time>
      </trkpt>
      <trkpt lat="46.02675" lon="3.88967">
        <ele>808</ele>
        <time>2011-09-18T20:28:43Z</time>
      </trkpt>
      <trkpt lat="46.02648" lon="3.88914">
        <ele>812</ele>
        <time>2011-09-18T20:28:43Z</time>
      </trkpt>
      <trkpt lat="46.02616" lon="3.88796">
        <ele>826</ele>
        <time>2011-09-18T20:28:43Z</time>
      </trkpt>
      <trkpt lat="46.02599" lon="3.88726">
        <ele>833</ele>
        <time>2011-09-18T20:28:43Z</time>
      </trkpt>
      <trkpt lat="46.0259" lon="3.88682">
        <ele>835</ele>
        <time>2011-09-18T20:28:43Z</time>
      </trkpt>
      <trkpt lat="46.02584" lon="3.88672">
        <ele>835</ele>
        <time>2011-09-18T20:28:43Z</time>
      </trkpt>
      <trkpt lat="46.02575" lon="3.88665">
        <ele>836</ele>
        <time>2011-09-18T20:28:43Z</time>
      </trkpt>
      <trkpt lat="46.02544" lon="3.88713">
        <ele>839</ele>
        <time>2011-09-18T20:28:43Z</time>
      </trkpt>
      <trkpt lat="46.02507" lon="3.88747">
        <ele>842</ele>
        <time>2011-09-18T20:28:43Z</time>
      </trkpt>
      <trkpt lat="46.02492" lon="3.88761">
        <ele>844</ele>
        <time>2011-09-18T20:28:43Z</time>
      </trkpt>
      <trkpt lat="46.02449" lon="3.88786">
        <ele>849</ele>
        <time>2011-09-18T20:28:43Z</time>
      </trkpt>
      <trkpt lat="46.02349" lon="3.88778">
        <ele>860</ele>
        <time>2011-09-18T20:28:43Z</time>
      </trkpt>
      <trkpt lat="46.02217" lon="3.8877">
        <ele>867</ele>
        <time>2011-09-18T20:28:43Z</time>
      </trkpt>
      <trkpt lat="46.02147" lon="3.88769">
        <ele>865</ele>
        <time>2011-09-18T20:28:43Z</time>
      </trkpt>
      <trkpt lat="46.02091" lon="3.88781">
        <ele>862</ele>
        <time>2011-09-18T20:28:43Z</time>
      </trkpt>
      <trkpt lat="46.02047" lon="3.88804">
        <ele>859</ele>
        <time>2011-09-18T20:28:43Z</time>
      </trkpt>
      <trkpt lat="46.02009" lon="3.88849">
        <ele>854</ele>
        <time>2011-09-18T20:28:43Z</time>
      </trkpt>
      <trkpt lat="46.01934" lon="3.88901">
        <ele>848</ele>
        <time>2011-09-18T20:28:43Z</time>
      </trkpt>
      <trkpt lat="46.01901" lon="3.88935">
        <ele>847</ele>
        <time>2011-09-18T20:28:43Z</time>
      </trkpt>
      <trkpt lat="46.01867" lon="3.88967">
        <ele>848</ele>
        <time>2011-09-18T20:28:43Z</time>
      </trkpt>
      <trkpt lat="46.01842" lon="3.89001">
        <ele>848</ele>
        <time>2011-09-18T20:28:43Z</time>
      </trkpt>
      <trkpt lat="46.01812" lon="3.89047">
        <ele>847</ele>
        <time>2011-09-18T20:28:43Z</time>
      </trkpt>
      <trkpt lat="46.01791" lon="3.89079">
        <ele>846</ele>
        <time>2011-09-18T20:28:43Z</time>
      </trkpt>
      <trkpt lat="46.01782" lon="3.89103">
        <ele>844</ele>
        <time>2011-09-18T20:28:43Z</time>
      </trkpt>
      <trkpt lat="46.01768" lon="3.89115">
        <ele>845</ele>
        <time>2011-09-18T20:28:43Z</time>
      </trkpt>
      <trkpt lat="46.01752" lon="3.89115">
        <ele>847</ele>
        <time>2011-09-18T20:28:43Z</time>
      </trkpt>
      <trkpt lat="46.01743" lon="3.89097">
        <ele>851</ele>
        <time>2011-09-18T20:28:43Z</time>
      </trkpt>
      <trkpt lat="46.01737" lon="3.88948">
        <ele>855</ele>
        <time>2011-09-18T20:28:43Z</time>
      </trkpt>
      <trkpt lat="46.01712" lon="3.88881">
        <ele>854</ele>
        <time>2011-09-18T20:28:43Z</time>
      </trkpt>
      <trkpt lat="46.01648" lon="3.88752">
        <ele>851</ele>
        <time>2011-09-18T20:28:43Z</time>
      </trkpt>
      <trkpt lat="46.01583" lon="3.88621">
        <ele>855</ele>
        <time>2011-09-18T20:28:43Z</time>
      </trkpt>
      <trkpt lat="46.01543" lon="3.88528">
        <ele>855</ele>
        <time>2011-09-18T20:28:43Z</time>
      </trkpt>
      <trkpt lat="46.01517" lon="3.88488">
        <ele>857</ele>
        <time>2011-09-18T20:28:43Z</time>
      </trkpt>
      <trkpt lat="46.01492" lon="3.88431">
        <ele>854</ele>
        <time>2011-09-18T20:28:43Z</time>
      </trkpt>
      <trkpt lat="46.01464" lon="3.88416">
        <ele>854</ele>
        <time>2011-09-18T20:28:43Z</time>
      </trkpt>
      <trkpt lat="46.0143" lon="3.88407">
        <ele>853</ele>
        <time>2011-09-18T20:28:43Z</time>
      </trkpt>
      <trkpt lat="46.01389" lon="3.88414">
        <ele>852</ele>
        <time>2011-09-18T20:28:43Z</time>
      </trkpt>
      <trkpt lat="46.0135" lon="3.88426">
        <ele>852</ele>
        <time>2011-09-18T20:28:43Z</time>
      </trkpt>
      <trkpt lat="46.01303" lon="3.88442">
        <ele>855</ele>
        <time>2011-09-18T20:28:43Z</time>
      </trkpt>
      <trkpt lat="46.01275" lon="3.88451">
        <ele>855</ele>
        <time>2011-09-18T20:28:43Z</time>
      </trkpt>
      <trkpt lat="46.01244" lon="3.88455">
        <ele>854</ele>
        <time>2011-09-18T20:28:43Z</time>
      </trkpt>
      <trkpt lat="46.01225" lon="3.88446">
        <ele>852</ele>
        <time>2011-09-18T20:28:43Z</time>
      </trkpt>
      <trkpt lat="46.01184" lon="3.88387">
        <ele>847</ele>
        <time>2011-09-18T20:28:43Z</time>
      </trkpt>
      <trkpt lat="46.01166" lon="3.88344">
        <ele>846</ele>
        <time>2011-09-18T20:28:43Z</time>
      </trkpt>
      <trkpt lat="46.01154" lon="3.88331">
        <ele>845</ele>
        <time>2011-09-18T20:28:43Z</time>
      </trkpt>
      <trkpt lat="46.01121" lon="3.88361">
        <ele>843</ele>
        <time>2011-09-18T20:28:43Z</time>
      </trkpt>
      <trkpt lat="46.01067" lon="3.88405">
        <ele>836</ele>
        <time>2011-09-18T20:28:43Z</time>
      </trkpt>
      <trkpt lat="46.01014" lon="3.88453">
        <ele>830</ele>
        <time>2011-09-18T20:28:43Z</time>
      </trkpt>
      <trkpt lat="46.00976" lon="3.88473">
        <ele>828</ele>
        <time>2011-09-18T20:28:43Z</time>
      </trkpt>
      <trkpt lat="46.00943" lon="3.88479">
        <ele>825</ele>
        <time>2011-09-18T20:28:43Z</time>
      </trkpt>
      <trkpt lat="46.00928" lon="3.88478">
        <ele>824</ele>
        <time>2011-09-18T20:28:43Z</time>
      </trkpt>
      <trkpt lat="46.00939" lon="3.88416">
        <ele>820</ele>
        <time>2011-09-18T20:28:43Z</time>
      </trkpt>
      <trkpt lat="46.0095" lon="3.88374">
        <ele>818</ele>
        <time>2011-09-18T20:28:43Z</time>
      </trkpt>
      <trkpt lat="46.00944" lon="3.88266">
        <ele>803</ele>
        <time>2011-09-18T20:28:43Z</time>
      </trkpt>
      <trkpt lat="46.0092" lon="3.88231">
        <ele>795</ele>
        <time>2011-09-18T20:28:43Z</time>
      </trkpt>
      <trkpt lat="46.00872" lon="3.88183">
        <ele>779</ele>
        <time>2011-09-18T20:28:43Z</time>
      </trkpt>
      <trkpt lat="46.00825" lon="3.88177">
        <ele>771</ele>
        <time>2011-09-18T20:28:43Z</time>
      </trkpt>
      <trkpt lat="46.00763" lon="3.88239">
        <ele>779</ele>
        <time>2011-09-18T20:28:43Z</time>
      </trkpt>
      <trkpt lat="46.00722" lon="3.88245">
        <ele>782</ele>
        <time>2011-09-18T20:28:43Z</time>
      </trkpt>
      <trkpt lat="46.0067" lon="3.8825">
        <ele>787</ele>
        <time>2011-09-18T20:28:43Z</time>
      </trkpt>
      <trkpt lat="46.00623" lon="3.88252">
        <ele>789</ele>
        <time>2011-09-18T20:28:43Z</time>
      </trkpt>
      <trkpt lat="46.00587" lon="3.88252">
        <ele>786</ele>
        <time>2011-09-18T20:28:43Z</time>
      </trkpt>
      <trkpt lat="46.00551" lon="3.88322">
        <ele>784</ele>
        <time>2011-09-18T20:28:43Z</time>
      </trkpt>
      <trkpt lat="46.00518" lon="3.88436">
        <ele>786</ele>
        <time>2011-09-18T20:28:43Z</time>
      </trkpt>
      <trkpt lat="46.00498" lon="3.8849">
        <ele>790</ele>
        <time>2011-09-18T20:28:43Z</time>
      </trkpt>
      <trkpt lat="46.00456" lon="3.88529">
        <ele>791</ele>
        <time>2011-09-18T20:28:43Z</time>
      </trkpt>
      <trkpt lat="46.0042" lon="3.88559">
        <ele>793</ele>
        <time>2011-09-18T20:28:43Z</time>
      </trkpt>
      <trkpt lat="46.00395" lon="3.886">
        <ele>799</ele>
        <time>2011-09-18T20:28:43Z</time>
      </trkpt>
      <trkpt lat="46.00385" lon="3.88623">
        <ele>802</ele>
        <time>2011-09-18T20:28:43Z</time>
      </trkpt>
      <trkpt lat="46.00382" lon="3.88676">
        <ele>803</ele>
        <time>2011-09-18T20:28:43Z</time>
      </trkpt>
      <trkpt lat="46.0038" lon="3.88689">
        <ele>801</ele>
        <time>2011-09-18T20:28:43Z</time>
      </trkpt>
      <trkpt lat="46.00339" lon="3.8866">
        <ele>804</ele>
        <time>2011-09-18T20:28:43Z</time>
      </trkpt>
      <trkpt lat="46.00336" lon="3.8866">
        <ele>803</ele>
        <time>2011-09-18T20:28:43Z</time>
      </trkpt>
      <trkpt lat="46.00319" lon="3.88721">
        <ele>792</ele>
        <time>2011-09-18T20:28:43Z</time>
      </trkpt>
      <trkpt lat="46.00318" lon="3.88747">
        <ele>787</ele>
        <time>2011-09-18T20:28:43Z</time>
      </trkpt>
      <trkpt lat="46.00323" lon="3.88768">
        <ele>783</ele>
        <time>2011-09-18T20:28:43Z</time>
      </trkpt>
      <trkpt lat="46.00347" lon="3.88802">
        <ele>780</ele>
        <time>2011-09-18T20:28:43Z</time>
      </trkpt>
      <trkpt lat="46.00349" lon="3.8882">
        <ele>779</ele>
        <time>2011-09-18T20:28:43Z</time>
      </trkpt>
      <trkpt lat="46.00332" lon="3.88834">
        <ele>775</ele>
        <time>2011-09-18T20:28:43Z</time>
      </trkpt>
      <trkpt lat="46.00321" lon="3.88839">
        <ele>773</ele>
        <time>2011-09-18T20:28:43Z</time>
      </trkpt>
      <trkpt lat="46.00295" lon="3.88859">
        <ele>768</ele>
        <time>2011-09-18T20:28:43Z</time>
      </trkpt>
      <trkpt lat="46.00264" lon="3.88861">
        <ele>767</ele>
        <time>2011-09-18T20:28:43Z</time>
      </trkpt>
      <trkpt lat="46.00244" lon="3.88917">
        <ele>760</ele>
        <time>2011-09-18T20:28:43Z</time>
      </trkpt>
      <trkpt lat="46.00231" lon="3.88944">
        <ele>756</ele>
        <time>2011-09-18T20:28:43Z</time>
      </trkpt>
      <trkpt lat="46.00212" lon="3.88957">
        <ele>754</ele>
        <time>2011-09-18T20:28:43Z</time>
      </trkpt>
      <trkpt lat="46.00178" lon="3.88933">
        <ele>757</ele>
        <time>2011-09-18T20:28:43Z</time>
      </trkpt>
      <trkpt lat="46.00149" lon="3.88911">
        <ele>759</ele>
        <time>2011-09-18T20:28:43Z</time>
      </trkpt>
      <trkpt lat="46.00124" lon="3.88895">
        <ele>760</ele>
        <time>2011-09-18T20:28:43Z</time>
      </trkpt>
      <trkpt lat="46.00108" lon="3.88894">
        <ele>758</ele>
        <time>2011-09-18T20:28:43Z</time>
      </trkpt>
      <trkpt lat="46.00077" lon="3.88893">
        <ele>756</ele>
        <time>2011-09-18T20:28:43Z</time>
      </trkpt>
      <trkpt lat="46.00058" lon="3.88885">
        <ele>758</ele>
        <time>2011-09-18T20:28:43Z</time>
      </trkpt>
      <trkpt lat="46.00036" lon="3.88882">
        <ele>758</ele>
        <time>2011-09-18T20:28:43Z</time>
      </trkpt>
      <trkpt lat="46.00028" lon="3.88906">
        <ele>756</ele>
        <time>2011-09-18T20:28:43Z</time>
      </trkpt>
      <trkpt lat="46.00038" lon="3.88937">
        <ele>757</ele>
        <time>2011-09-18T20:28:43Z</time>
      </trkpt>
      <trkpt lat="46.00038" lon="3.88974">
        <ele>759</ele>
        <time>2011-09-18T20:28:43Z</time>
      </trkpt>
      <trkpt lat="46.00027" lon="3.88974">
        <ele>761</ele>
        <time>2011-09-18T20:28:43Z</time>
      </trkpt>
      <trkpt lat="46.0001" lon="3.88957">
        <ele>764</ele>
        <time>2011-09-18T20:28:43Z</time>
      </trkpt>
      <trkpt lat="45.99993" lon="3.8896">
        <ele>768</ele>
        <time>2011-09-18T20:28:43Z</time>
      </trkpt>
      <trkpt lat="45.99985" lon="3.89062">
        <ele>780</ele>
        <time>2011-09-18T20:28:43Z</time>
      </trkpt>
      <trkpt lat="45.99998" lon="3.89185">
        <ele>788</ele>
        <time>2011-09-18T20:28:43Z</time>
      </trkpt>
      <trkpt lat="46.0001" lon="3.89334">
        <ele>798</ele>
        <time>2011-09-18T20:28:43Z</time>
      </trkpt>
      <trkpt lat="46.00016" lon="3.89382">
        <ele>802</ele>
        <time>2011-09-18T20:28:43Z</time>
      </trkpt>
      <trkpt lat="46.00035" lon="3.89455">
        <ele>805</ele>
        <time>2011-09-18T20:28:43Z</time>
      </trkpt>
      <trkpt lat="46.00057" lon="3.89514">
        <ele>806</ele>
        <time>2011-09-18T20:28:43Z</time>
      </trkpt>
      <trkpt lat="46.00057" lon="3.89569">
        <ele>814</ele>
        <time>2011-09-18T20:28:43Z</time>
      </trkpt>
      <trkpt lat="46.00056" lon="3.89616">
        <ele>818</ele>
        <time>2011-09-18T20:28:43Z</time>
      </trkpt>
      <trkpt lat="46.00042" lon="3.89673">
        <ele>817</ele>
        <time>2011-09-18T20:28:43Z</time>
      </trkpt>
      <trkpt lat="45.99994" lon="3.89706">
        <ele>815</ele>
        <time>2011-09-18T20:28:43Z</time>
      </trkpt>
      <trkpt lat="45.99952" lon="3.89761">
        <ele>807</ele>
        <time>2011-09-18T20:28:43Z</time>
      </trkpt>
      <trkpt lat="45.99894" lon="3.89789">
        <ele>810</ele>
        <time>2011-09-18T20:28:43Z</time>
      </trkpt>
      <trkpt lat="45.99849" lon="3.89842">
        <ele>811</ele>
        <time>2011-09-18T20:28:43Z</time>
      </trkpt>
      <trkpt lat="45.9982" lon="3.89919">
        <ele>814</ele>
        <time>2011-09-18T20:28:43Z</time>
      </trkpt>
      <trkpt lat="45.99806" lon="3.89983">
        <ele>815</ele>
        <time>2011-09-18T20:28:43Z</time>
      </trkpt>
      <trkpt lat="45.99785" lon="3.90047">
        <ele>818</ele>
        <time>2011-09-18T20:28:43Z</time>
      </trkpt>
      <trkpt lat="45.99737" lon="3.90078">
        <ele>820</ele>
        <time>2011-09-18T20:28:43Z</time>
      </trkpt>
      <trkpt lat="45.99702" lon="3.90091">
        <ele>820</ele>
        <time>2011-09-18T20:28:43Z</time>
      </trkpt>
      <trkpt lat="45.99671" lon="3.90092">
        <ele>824</ele>
        <time>2011-09-18T20:28:43Z</time>
      </trkpt>
      <trkpt lat="45.99653" lon="3.90113">
        <ele>825</ele>
        <time>2011-09-18T20:28:43Z</time>
      </trkpt>
      <trkpt lat="45.99631" lon="3.90185">
        <ele>820</ele>
        <time>2011-09-18T20:28:43Z</time>
      </trkpt>
      <trkpt lat="45.99586" lon="3.90282">
        <ele>820</ele>
        <time>2011-09-18T20:28:43Z</time>
      </trkpt>
      <trkpt lat="45.99574" lon="3.90341">
        <ele>818</ele>
        <time>2011-09-18T20:28:43Z</time>
      </trkpt>
      <trkpt lat="45.99557" lon="3.90395">
        <ele>818</ele>
        <time>2011-09-18T20:28:43Z</time>
      </trkpt>
      <trkpt lat="45.99521" lon="3.90445">
        <ele>816</ele>
        <time>2011-09-18T20:28:43Z</time>
      </trkpt>
      <trkpt lat="45.9948" lon="3.90484">
        <ele>815</ele>
        <time>2011-09-18T20:28:43Z</time>
      </trkpt>
      <trkpt lat="45.9943" lon="3.90497">
        <ele>818</ele>
        <time>2011-09-18T20:28:43Z</time>
      </trkpt>
      <trkpt lat="45.9939" lon="3.90496">
        <ele>822</ele>
        <time>2011-09-18T20:28:43Z</time>
      </trkpt>
      <trkpt lat="45.99321" lon="3.90484">
        <ele>828</ele>
        <time>2011-09-18T20:28:43Z</time>
      </trkpt>
      <trkpt lat="45.99306" lon="3.9048">
        <ele>829</ele>
        <time>2011-09-18T20:28:43Z</time>
      </trkpt>
      <trkpt lat="45.99219" lon="3.90462">
        <ele>836</ele>
        <time>2011-09-18T20:28:43Z</time>
      </trkpt>
      <trkpt lat="45.99168" lon="3.90465">
        <ele>838</ele>
        <time>2011-09-18T20:28:43Z</time>
      </trkpt>
      <trkpt lat="45.9914" lon="3.90466">
        <ele>841</ele>
        <time>2011-09-18T20:28:43Z</time>
      </trkpt>
      <trkpt lat="45.99122" lon="3.90465">
        <ele>843</ele>
        <time>2011-09-18T20:28:43Z</time>
      </trkpt>
      <trkpt lat="45.99099" lon="3.90471">
        <ele>845</ele>
        <time>2011-09-18T20:28:43Z</time>
      </trkpt>
      <trkpt lat="45.99073" lon="3.90483">
        <ele>849</ele>
        <time>2011-09-18T20:28:43Z</time>
      </trkpt>
      <trkpt lat="45.99056" lon="3.9051">
        <ele>847</ele>
        <time>2011-09-18T20:28:43Z</time>
      </trkpt>
      <trkpt lat="45.99035" lon="3.9051">
        <ele>851</ele>
        <time>2011-09-18T20:28:43Z</time>
      </trkpt>
      <trkpt lat="45.98992" lon="3.90487">
        <ele>861</ele>
        <time>2011-09-18T20:28:43Z</time>
      </trkpt>
      <trkpt lat="45.98953" lon="3.90456">
        <ele>866</ele>
        <time>2011-09-18T20:28:43Z</time>
      </trkpt>
      <trkpt lat="45.98908" lon="3.90346">
        <ele>871</ele>
        <time>2011-09-18T20:28:43Z</time>
      </trkpt>
      <trkpt lat="45.98898" lon="3.90288">
        <ele>867</ele>
        <time>2011-09-18T20:28:43Z</time>
      </trkpt>
      <trkpt lat="45.98921" lon="3.9013">
        <ele>864</ele>
        <time>2011-09-18T20:28:43Z</time>
      </trkpt>
      <trkpt lat="45.98938" lon="3.90068">
        <ele>864</ele>
        <time>2011-09-18T20:28:43Z</time>
      </trkpt>
      <trkpt lat="45.98951" lon="3.90028">
        <ele>866</ele>
        <time>2011-09-18T20:28:43Z</time>
      </trkpt>
      <trkpt lat="45.9897" lon="3.89927">
        <ele>868</ele>
        <time>2011-09-18T20:28:43Z</time>
      </trkpt>
      <trkpt lat="45.99017" lon="3.89828">
        <ele>878</ele>
        <time>2011-09-18T20:28:43Z</time>
      </trkpt>
      <trkpt lat="45.99083" lon="3.8969">
        <ele>882</ele>
        <time>2011-09-18T20:28:43Z</time>
      </trkpt>
      <trkpt lat="45.99101" lon="3.89629">
        <ele>882</ele>
        <time>2011-09-18T20:28:43Z</time>
      </trkpt>
      <trkpt lat="45.99127" lon="3.89513">
        <ele>883</ele>
        <time>2011-09-18T20:28:43Z</time>
      </trkpt>
      <trkpt lat="45.99123" lon="3.89421">
        <ele>885</ele>
        <time>2011-09-18T20:28:43Z</time>
      </trkpt>
      <trkpt lat="45.991" lon="3.8935">
        <ele>891</ele>
        <time>2011-09-18T20:28:43Z</time>
      </trkpt>
      <trkpt lat="45.99062" lon="3.89324">
        <ele>894</ele>
        <time>2011-09-18T20:28:43Z</time>
      </trkpt>
      <trkpt lat="45.99027" lon="3.89296">
        <ele>899</ele>
        <time>2011-09-18T20:28:43Z</time>
      </trkpt>
      <trkpt lat="45.98989" lon="3.89266">
        <ele>903</ele>
        <time>2011-09-18T20:28:43Z</time>
      </trkpt>
      <trkpt lat="45.9897" lon="3.89238">
        <ele>904</ele>
        <time>2011-09-18T20:28:43Z</time>
      </trkpt>
      <trkpt lat="45.98954" lon="3.89178">
        <ele>903</ele>
        <time>2011-09-18T20:28:43Z</time>
      </trkpt>
      <trkpt lat="45.98949" lon="3.89124">
        <ele>900</ele>
        <time>2011-09-18T20:28:43Z</time>
      </trkpt>
      <trkpt lat="45.9895" lon="3.89086">
        <ele>899</ele>
        <time>2011-09-18T20:28:43Z</time>
      </trkpt>
      <trkpt lat="45.98946" lon="3.89031">
        <ele>896</ele>
        <time>2011-09-18T20:28:43Z</time>
      </trkpt>
      <trkpt lat="45.98947" lon="3.88976">
        <ele>894</ele>
        <time>2011-09-18T20:28:43Z</time>
      </trkpt>
      <trkpt lat="45.98958" lon="3.88876">
        <ele>895</ele>
        <time>2011-09-18T20:28:43Z</time>
      </trkpt>
      <trkpt lat="45.98959" lon="3.88792">
        <ele>897</ele>
        <time>2011-09-18T20:28:43Z</time>
      </trkpt>
      <trkpt lat="45.9893" lon="3.88754">
        <ele>893</ele>
        <time>2011-09-18T20:28:43Z</time>
      </trkpt>
      <trkpt lat="45.98906" lon="3.8867">
        <ele>893</ele>
        <time>2011-09-18T20:28:43Z</time>
      </trkpt>
      <trkpt lat="45.98887" lon="3.88608">
        <ele>890</ele>
        <time>2011-09-18T20:28:43Z</time>
      </trkpt>
      <trkpt lat="45.98881" lon="3.88554">
        <ele>887</ele>
        <time>2011-09-18T20:28:43Z</time>
      </trkpt>
      <trkpt lat="45.98885" lon="3.885">
        <ele>884</ele>
        <time>2011-09-18T20:28:43Z</time>
      </trkpt>
      <trkpt lat="45.98919" lon="3.88381">
        <ele>876</ele>
        <time>2011-09-18T20:28:43Z</time>
      </trkpt>
      <trkpt lat="45.98939" lon="3.88327">
        <ele>872</ele>
        <time>2011-09-18T20:28:43Z</time>
      </trkpt>
      <trkpt lat="45.98977" lon="3.88263">
        <ele>865</ele>
        <time>2011-09-18T20:28:43Z</time>
      </trkpt>
      <trkpt lat="45.99" lon="3.88196">
        <ele>857</ele>
        <time>2011-09-18T20:28:43Z</time>
      </trkpt>
      <trkpt lat="45.99012" lon="3.88155">
        <ele>853</ele>
        <time>2011-09-18T20:28:43Z</time>
      </trkpt>
      <trkpt lat="45.99017" lon="3.88118">
        <ele>850</ele>
        <time>2011-09-18T20:28:43Z</time>
      </trkpt>
      <trkpt lat="45.99026" lon="3.88069">
        <ele>850</ele>
        <time>2011-09-18T20:28:43Z</time>
      </trkpt>
      <trkpt lat="45.99027" lon="3.8806">
        <ele>850</ele>
        <time>2011-09-18T20:28:43Z</time>
      </trkpt>
      <trkpt lat="45.99048" lon="3.88026">
        <ele>851</ele>
        <time>2011-09-18T20:28:43Z</time>
      </trkpt>
      <trkpt lat="45.99088" lon="3.87966">
        <ele>849</ele>
        <time>2011-09-18T20:28:43Z</time>
      </trkpt>
      <trkpt lat="45.99119" lon="3.87866">
        <ele>853</ele>
        <time>2011-09-18T20:28:43Z</time>
      </trkpt>
      <trkpt lat="45.99155" lon="3.87789">
        <ele>856</ele>
        <time>2011-09-18T20:28:43Z</time>
      </trkpt>
      <trkpt lat="45.99216" lon="3.87705">
        <ele>858</ele>
        <time>2011-09-18T20:28:43Z</time>
      </trkpt>
      <trkpt lat="45.99273" lon="3.87647">
        <ele>860</ele>
        <time>2011-09-18T20:28:43Z</time>
      </trkpt>
      <trkpt lat="45.99319" lon="3.87613">
        <ele>860</ele>
        <time>2011-09-18T20:28:43Z</time>
      </trkpt>
      <trkpt lat="45.99353" lon="3.87574">
        <ele>860</ele>
        <time>2011-09-18T20:28:43Z</time>
      </trkpt>
      <trkpt lat="45.99376" lon="3.87534">
        <ele>859</ele>
        <time>2011-09-18T20:28:43Z</time>
      </trkpt>
      <trkpt lat="45.99381" lon="3.87461">
        <ele>858</ele>
        <time>2011-09-18T20:28:43Z</time>
      </trkpt>
      <trkpt lat="45.99382" lon="3.87313">
        <ele>855</ele>
        <time>2011-09-18T20:28:43Z</time>
      </trkpt>
      <trkpt lat="45.99393" lon="3.87245">
        <ele>857</ele>
        <time>2011-09-18T20:28:43Z</time>
      </trkpt>
      <trkpt lat="45.99408" lon="3.87168">
        <ele>860</ele>
        <time>2011-09-18T20:28:43Z</time>
      </trkpt>
      <trkpt lat="45.99413" lon="3.87138">
        <ele>862</ele>
        <time>2011-09-18T20:28:43Z</time>
      </trkpt>
      <trkpt lat="45.9946" lon="3.87031">
        <ele>868</ele>
        <time>2011-09-18T20:28:43Z</time>
      </trkpt>
      <trkpt lat="45.99493" lon="3.86974">
        <ele>873</ele>
        <time>2011-09-18T20:28:43Z</time>
      </trkpt>
      <trkpt lat="45.99525" lon="3.86934">
        <ele>876</ele>
        <time>2011-09-18T20:28:43Z</time>
      </trkpt>
      <trkpt lat="45.99565" lon="3.86865">
        <ele>880</ele>
        <time>2011-09-18T20:28:43Z</time>
      </trkpt>
      <trkpt lat="45.99578" lon="3.86816">
        <ele>882</ele>
        <time>2011-09-18T20:28:43Z</time>
      </trkpt>
      <trkpt lat="45.99581" lon="3.86752">
        <ele>882</ele>
        <time>2011-09-18T20:28:43Z</time>
      </trkpt>
      <trkpt lat="45.9957" lon="3.86677">
        <ele>881</ele>
        <time>2011-09-18T20:28:43Z</time>
      </trkpt>
      <trkpt lat="45.99556" lon="3.8659">
        <ele>879</ele>
        <time>2011-09-18T20:28:43Z</time>
      </trkpt>
      <trkpt lat="45.99534" lon="3.86522">
        <ele>882</ele>
        <time>2011-09-18T20:28:43Z</time>
      </trkpt>
      <trkpt lat="45.99523" lon="3.86452">
        <ele>883</ele>
        <time>2011-09-18T20:28:43Z</time>
      </trkpt>
      <trkpt lat="45.99522" lon="3.86389">
        <ele>882</ele>
        <time>2011-09-18T20:28:43Z</time>
      </trkpt>
      <trkpt lat="45.9953" lon="3.8632">
        <ele>881</ele>
        <time>2011-09-18T20:28:43Z</time>
      </trkpt>
      <trkpt lat="45.99548" lon="3.86302">
        <ele>885</ele>
        <time>2011-09-18T20:28:43Z</time>
      </trkpt>
      <trkpt lat="45.99571" lon="3.86308">
        <ele>887</ele>
        <time>2011-09-18T20:28:43Z</time>
      </trkpt>
      <trkpt lat="45.99592" lon="3.86338">
        <ele>885</ele>
        <time>2011-09-18T20:28:43Z</time>
      </trkpt>
      <trkpt lat="45.99614" lon="3.86359">
        <ele>883</ele>
        <time>2011-09-18T20:28:43Z</time>
      </trkpt>
      <trkpt lat="45.99664" lon="3.86372">
        <ele>884</ele>
        <time>2011-09-18T20:28:43Z</time>
      </trkpt>
      <trkpt lat="45.99684" lon="3.86379">
        <ele>884</ele>
        <time>2011-09-18T20:28:43Z</time>
      </trkpt>
      <trkpt lat="45.9971" lon="3.86381">
        <ele>885</ele>
        <time>2011-09-18T20:28:43Z</time>
      </trkpt>
      <trkpt lat="45.99726" lon="3.86357">
        <ele>889</ele>
        <time>2011-09-18T20:28:43Z</time>
      </trkpt>
      <trkpt lat="45.99753" lon="3.86282">
        <ele>891</ele>
        <time>2011-09-18T20:28:43Z</time>
      </trkpt>
      <trkpt lat="45.99775" lon="3.86178">
        <ele>896</ele>
        <time>2011-09-18T20:28:43Z</time>
      </trkpt>
      <trkpt lat="45.99827" lon="3.86141">
        <ele>889</ele>
        <time>2011-09-18T20:28:43Z</time>
      </trkpt>
      <trkpt lat="45.99846" lon="3.86106">
        <ele>892</ele>
        <time>2011-09-18T20:28:43Z</time>
      </trkpt>
      <trkpt lat="45.99883" lon="3.86081">
        <ele>900</ele>
        <time>2011-09-18T20:28:43Z</time>
      </trkpt>
      <trkpt lat="45.99912" lon="3.86103">
        <ele>906</ele>
        <time>2011-09-18T20:28:43Z</time>
      </trkpt>
      <trkpt lat="45.99949" lon="3.86138">
        <ele>912</ele>
        <time>2011-09-18T20:28:43Z</time>
      </trkpt>
      <trkpt lat="45.99991" lon="3.8615">
        <ele>924</ele>
        <time>2011-09-18T20:28:43Z</time>
      </trkpt>
      <trkpt lat="46.00008" lon="3.86185">
        <ele>924</ele>
        <time>2011-09-18T20:28:43Z</time>
      </trkpt>
      <trkpt lat="46.00076" lon="3.86215">
        <ele>938</ele>
        <time>2011-09-18T20:28:43Z</time>
      </trkpt>
      <trkpt lat="46.00103" lon="3.86249">
        <ele>942</ele>
        <time>2011-09-18T20:28:43Z</time>
      </trkpt>
      <trkpt lat="46.00134" lon="3.86272">
        <ele>948</ele>
        <time>2011-09-18T20:28:43Z</time>
      </trkpt>
      <trkpt lat="46.00176" lon="3.86291">
        <ele>954</ele>
        <time>2011-09-18T20:28:43Z</time>
      </trkpt>
      <trkpt lat="46.00193" lon="3.86291">
        <ele>955</ele>
        <time>2011-09-18T20:28:43Z</time>
      </trkpt>
      <trkpt lat="46.00232" lon="3.86199">
        <ele>966</ele>
        <time>2011-09-18T20:28:43Z</time>
      </trkpt>
      <trkpt lat="46.00267" lon="3.86127">
        <ele>975</ele>
        <time>2011-09-18T20:28:43Z</time>
      </trkpt>
      <trkpt lat="46.00301" lon="3.86026">
        <ele>989</ele>
        <time>2011-09-18T20:28:43Z</time>
      </trkpt>
      <trkpt lat="46.00317" lon="3.85987">
        <ele>994</ele>
        <time>2011-09-18T20:28:43Z</time>
      </trkpt>
      <trkpt lat="46.00334" lon="3.85914">
        <ele>1004</ele>
        <time>2011-09-18T20:28:43Z</time>
      </trkpt>
      <trkpt lat="46.0033" lon="3.85851">
        <ele>1013</ele>
        <time>2011-09-18T20:28:43Z</time>
      </trkpt>
      <trkpt lat="46.00345" lon="3.8574">
        <ele>1021</ele>
        <time>2011-09-18T20:28:43Z</time>
      </trkpt>
      <trkpt lat="46.00353" lon="3.85595">
        <ele>1032</ele>
        <time>2011-09-18T20:28:43Z</time>
      </trkpt>
      <trkpt lat="46.00373" lon="3.85426">
        <ele>1043</ele>
        <time>2011-09-18T20:28:43Z</time>
      </trkpt>
      <trkpt lat="46.00402" lon="3.85274">
        <ele>1050</ele>
        <time>2011-09-18T20:28:43Z</time>
      </trkpt>
      <trkpt lat="46.0043" lon="3.85118">
        <ele>1064</ele>
        <time>2011-09-18T20:28:43Z</time>
      </trkpt>
      <trkpt lat="46.00436" lon="3.85021">
        <ele>1073</ele>
        <time>2011-09-18T20:28:43Z</time>
      </trkpt>
      <trkpt lat="46.00445" lon="3.84922">
        <ele>1078</ele>
        <time>2011-09-18T20:28:43Z</time>
      </trkpt>
      <trkpt lat="46.00448" lon="3.84868">
        <ele>1081</ele>
        <time>2011-09-18T20:28:43Z</time>
      </trkpt>
      <trkpt lat="46.00434" lon="3.84829">
        <ele>1082</ele>
        <time>2011-09-18T20:28:43Z</time>
      </trkpt>
      <trkpt lat="46.00404" lon="3.84774">
        <ele>1081</ele>
        <time>2011-09-18T20:28:43Z</time>
      </trkpt>
      <trkpt lat="46.00359" lon="3.84701">
        <ele>1074</ele>
        <time>2011-09-18T20:28:43Z</time>
      </trkpt>
      <trkpt lat="46.00321" lon="3.84626">
        <ele>1067</ele>
        <time>2011-09-18T20:28:43Z</time>
      </trkpt>
      <trkpt lat="46.00285" lon="3.84531">
        <ele>1059</ele>
        <time>2011-09-18T20:28:43Z</time>
      </trkpt>
      <trkpt lat="46.00231" lon="3.84428">
        <ele>1057</ele>
        <time>2011-09-18T20:28:43Z</time>
      </trkpt>
      <trkpt lat="46.00217" lon="3.84412">
        <ele>1060</ele>
        <time>2011-09-18T20:28:43Z</time>
      </trkpt>
      <trkpt lat="46.00194" lon="3.84406">
        <ele>1062</ele>
        <time>2011-09-18T20:28:43Z</time>
      </trkpt>
      <trkpt lat="46.00169" lon="3.84376">
        <ele>1066</ele>
        <time>2011-09-18T20:28:43Z</time>
      </trkpt>
      <trkpt lat="46.00145" lon="3.84345">
        <ele>1068</ele>
        <time>2011-09-18T20:28:43Z</time>
      </trkpt>
      <trkpt lat="46.00121" lon="3.84286">
        <ele>1069</ele>
        <time>2011-09-18T20:28:43Z</time>
      </trkpt>
      <trkpt lat="46.00089" lon="3.84219">
        <ele>1069</ele>
        <time>2011-09-18T20:28:43Z</time>
      </trkpt>
      <trkpt lat="46.00085" lon="3.84201">
        <ele>1069</ele>
        <time>2011-09-18T20:28:43Z</time>
      </trkpt>
      <trkpt lat="46.00085" lon="3.84177">
        <ele>1069</ele>
        <time>2011-09-18T20:28:43Z</time>
      </trkpt>
      <trkpt lat="46.00114" lon="3.84109">
        <ele>1070</ele>
        <time>2011-09-18T20:28:43Z</time>
      </trkpt>
      <trkpt lat="46.00145" lon="3.83985">
        <ele>1073</ele>
        <time>2011-09-18T20:28:43Z</time>
      </trkpt>
      <trkpt lat="46.00223" lon="3.83757">
        <ele>1077</ele>
        <time>2011-09-18T20:28:43Z</time>
      </trkpt>
      <trkpt lat="46.00288" lon="3.83628">
        <ele>1071</ele>
        <time>2011-09-18T20:28:43Z</time>
      </trkpt>
      <trkpt lat="46.0039" lon="3.83559">
        <ele>1068</ele>
        <time>2011-09-18T20:28:43Z</time>
      </trkpt>
      <trkpt lat="46.00427" lon="3.83555">
        <ele>1066</ele>
        <time>2011-09-18T20:28:43Z</time>
      </trkpt>
      <trkpt lat="46.0053" lon="3.83552">
        <ele>1057</ele>
        <time>2011-09-18T20:28:43Z</time>
      </trkpt>
      <trkpt lat="46.00585" lon="3.83568">
        <ele>1054</ele>
        <time>2011-09-18T20:28:43Z</time>
      </trkpt>
      <trkpt lat="46.00606" lon="3.83583">
        <ele>1053</ele>
        <time>2011-09-18T20:28:43Z</time>
      </trkpt>
      <trkpt lat="46.0064" lon="3.83577">
        <ele>1056</ele>
        <time>2011-09-18T20:28:43Z</time>
      </trkpt>
      <trkpt lat="46.00657" lon="3.83542">
        <ele>1060</ele>
        <time>2011-09-18T20:28:43Z</time>
      </trkpt>
      <trkpt lat="46.00685" lon="3.83483">
        <ele>1064</ele>
        <time>2011-09-18T20:28:43Z</time>
      </trkpt>
      <trkpt lat="46.00718" lon="3.83408">
        <ele>1064</ele>
        <time>2011-09-18T20:28:43Z</time>
      </trkpt>
      <trkpt lat="46.00758" lon="3.83395">
        <ele>1065</ele>
        <time>2011-09-18T20:28:43Z</time>
      </trkpt>
      <trkpt lat="46.00821" lon="3.83363">
        <ele>1067</ele>
        <time>2011-09-18T20:28:43Z</time>
      </trkpt>
      <trkpt lat="46.00853" lon="3.83325">
        <ele>1067</ele>
        <time>2011-09-18T20:28:43Z</time>
      </trkpt>
      <trkpt lat="46.00885" lon="3.83271">
        <ele>1070</ele>
        <time>2011-09-18T20:28:43Z</time>
      </trkpt>
      <trkpt lat="46.00918" lon="3.83207">
        <ele>1074</ele>
        <time>2011-09-18T20:28:43Z</time>
      </trkpt>
      <trkpt lat="46.00932" lon="3.83101">
        <ele>1075</ele>
        <time>2011-09-18T20:28:43Z</time>
      </trkpt>
      <trkpt lat="46.0096" lon="3.83041">
        <ele>1078</ele>
        <time>2011-09-18T20:28:43Z</time>
      </trkpt>
      <trkpt lat="46.00988" lon="3.82991">
        <ele>1081</ele>
        <time>2011-09-18T20:28:43Z</time>
      </trkpt>
      <trkpt lat="46.01002" lon="3.82955">
        <ele>1082</ele>
        <time>2011-09-18T20:28:43Z</time>
      </trkpt>
      <trkpt lat="46.0101" lon="3.82898">
        <ele>1082</ele>
        <time>2011-09-18T20:28:43Z</time>
      </trkpt>
      <trkpt lat="46.00996" lon="3.82882">
        <ele>1083</ele>
        <time>2011-09-18T20:28:43Z</time>
      </trkpt>
      <trkpt lat="46.00973" lon="3.82876">
        <ele>1083</ele>
        <time>2011-09-18T20:28:43Z</time>
      </trkpt>
      <trkpt lat="46.00942" lon="3.82856">
        <ele>1087</ele>
        <time>2011-09-18T20:28:43Z</time>
      </trkpt>
      <trkpt lat="46.0089" lon="3.82824">
        <ele>1092</ele>
        <time>2011-09-18T20:28:43Z</time>
      </trkpt>
      <trkpt lat="46.0082" lon="3.82756">
        <ele>1096</ele>
        <time>2011-09-18T20:28:43Z</time>
      </trkpt>
      <trkpt lat="46.00786" lon="3.82695">
        <ele>1099</ele>
        <time>2011-09-18T20:28:43Z</time>
      </trkpt>
      <trkpt lat="46.00714" lon="3.82616">
        <ele>1098</ele>
        <time>2011-09-18T20:28:43Z</time>
      </trkpt>
      <trkpt lat="46.00683" lon="3.8256">
        <ele>1097</ele>
        <time>2011-09-18T20:28:43Z</time>
      </trkpt>
      <trkpt lat="46.00679" lon="3.82524">
        <ele>1098</ele>
        <time>2011-09-18T20:28:43Z</time>
      </trkpt>
      <trkpt lat="46.0067" lon="3.82498">
        <ele>1097</ele>
        <time>2011-09-18T20:28:43Z</time>
      </trkpt>
      <trkpt lat="46.00658" lon="3.82472">
        <ele>1095</ele>
        <time>2011-09-18T20:28:43Z</time>
      </trkpt>
      <trkpt lat="46.00668" lon="3.8245">
        <ele>1096</ele>
        <time>2011-09-18T20:28:43Z</time>
      </trkpt>
      <trkpt lat="46.00735" lon="3.82469">
        <ele>1103</ele>
        <time>2011-09-18T20:28:43Z</time>
      </trkpt>
      <trkpt lat="46.00802" lon="3.82466">
        <ele>1108</ele>
        <time>2011-09-18T20:28:43Z</time>
      </trkpt>
      <trkpt lat="46.00875" lon="3.82422">
        <ele>1110</ele>
        <time>2011-09-18T20:28:43Z</time>
      </trkpt>
      <trkpt lat="46.00936" lon="3.82397">
        <ele>1110</ele>
        <time>2011-09-18T20:28:43Z</time>
      </trkpt>
      <trkpt lat="46.0101" lon="3.82385">
        <ele>1110</ele>
        <time>2011-09-18T20:28:43Z</time>
      </trkpt>
      <trkpt lat="46.01041" lon="3.82374">
        <ele>1109</ele>
        <time>2011-09-18T20:28:43Z</time>
      </trkpt>
      <trkpt lat="46.01088" lon="3.8231">
        <ele>1110</ele>
        <time>2011-09-18T20:28:43Z</time>
      </trkpt>
      <trkpt lat="46.01136" lon="3.82235">
        <ele>1109</ele>
        <time>2011-09-18T20:28:43Z</time>
      </trkpt>
      <trkpt lat="46.01188" lon="3.8223">
        <ele>1105</ele>
        <time>2011-09-18T20:28:43Z</time>
      </trkpt>
      <trkpt lat="46.01251" lon="3.82237">
        <ele>1103</ele>
        <time>2011-09-18T20:28:43Z</time>
      </trkpt>
      <trkpt lat="46.01304" lon="3.82252">
        <ele>1103</ele>
        <time>2011-09-18T20:28:43Z</time>
      </trkpt>
      <trkpt lat="46.01349" lon="3.82262">
        <ele>1101</ele>
        <time>2011-09-18T20:28:43Z</time>
      </trkpt>
      <trkpt lat="46.01386" lon="3.82251">
        <ele>1099</ele>
        <time>2011-09-18T20:28:43Z</time>
      </trkpt>
      <trkpt lat="46.01437" lon="3.82214">
        <ele>1095</ele>
        <time>2011-09-18T20:28:43Z</time>
      </trkpt>
      <trkpt lat="46.01484" lon="3.82156">
        <ele>1093</ele>
        <time>2011-09-18T20:28:43Z</time>
      </trkpt>
      <trkpt lat="46.01521" lon="3.82128">
        <ele>1090</ele>
        <time>2011-09-18T20:28:43Z</time>
      </trkpt>
      <trkpt lat="46.01548" lon="3.82123">
        <ele>1087</ele>
        <time>2011-09-18T20:28:43Z</time>
      </trkpt>
      <trkpt lat="46.01569" lon="3.82105">
        <ele>1086</ele>
        <time>2011-09-18T20:28:43Z</time>
      </trkpt>
      <trkpt lat="46.01583" lon="3.8206">
        <ele>1087</ele>
        <time>2011-09-18T20:28:43Z</time>
      </trkpt>
      <trkpt lat="46.01608" lon="3.82017">
        <ele>1088</ele>
        <time>2011-09-18T20:28:43Z</time>
      </trkpt>
      <trkpt lat="46.01667" lon="3.81972">
        <ele>1092</ele>
        <time>2011-09-18T20:28:43Z</time>
      </trkpt>
      <trkpt lat="46.01719" lon="3.81938">
        <ele>1096</ele>
        <time>2011-09-18T20:28:43Z</time>
      </trkpt>
      <trkpt lat="46.01762" lon="3.81936">
        <ele>1096</ele>
        <time>2011-09-18T20:28:43Z</time>
      </trkpt>
      <trkpt lat="46.01795" lon="3.81943">
        <ele>1092</ele>
        <time>2011-09-18T20:28:43Z</time>
      </trkpt>
      <trkpt lat="46.01837" lon="3.81936">
        <ele>1090</ele>
        <time>2011-09-18T20:28:43Z</time>
      </trkpt>
      <trkpt lat="46.01889" lon="3.81874">
        <ele>1086</ele>
        <time>2011-09-18T20:28:43Z</time>
      </trkpt>
      <trkpt lat="46.01924" lon="3.81809">
        <ele>1081</ele>
        <time>2011-09-18T20:28:43Z</time>
      </trkpt>
      <trkpt lat="46.01971" lon="3.81762">
        <ele>1077</ele>
        <time>2011-09-18T20:28:43Z</time>
      </trkpt>
      <trkpt lat="46.0201" lon="3.81734">
        <ele>1074</ele>
        <time>2011-09-18T20:28:43Z</time>
      </trkpt>
      <trkpt lat="46.02042" lon="3.8172">
        <ele>1072</ele>
        <time>2011-09-18T20:28:43Z</time>
      </trkpt>
      <trkpt lat="46.02129" lon="3.81692">
        <ele>1061</ele>
        <time>2011-09-18T20:28:43Z</time>
      </trkpt>
      <trkpt lat="46.02242" lon="3.81637">
        <ele>1046</ele>
        <time>2011-09-18T20:28:43Z</time>
      </trkpt>
      <trkpt lat="46.023" lon="3.81595">
        <ele>1043</ele>
        <time>2011-09-18T20:28:43Z</time>
      </trkpt>
      <trkpt lat="46.02341" lon="3.8156">
        <ele>1039</ele>
        <time>2011-09-18T20:28:43Z</time>
      </trkpt>
      <trkpt lat="46.0239" lon="3.81513">
        <ele>1035</ele>
        <time>2011-09-18T20:28:43Z</time>
      </trkpt>
      <trkpt lat="46.02416" lon="3.81496">
        <ele>1033</ele>
        <time>2011-09-18T20:28:43Z</time>
      </trkpt>
      <trkpt lat="46.02508" lon="3.81471">
        <ele>1026</ele>
        <time>2011-09-18T20:28:43Z</time>
      </trkpt>
      <trkpt lat="46.02651" lon="3.81407">
        <ele>1030</ele>
        <time>2011-09-18T20:28:43Z</time>
      </trkpt>
      <trkpt lat="46.0282" lon="3.81351">
        <ele>1035</ele>
        <time>2011-09-21T18:39:49Z</time>
      </trkpt>
      <trkpt lat="46.02941" lon="3.81402">
        <ele>1026</ele>
        <time>2011-09-18T20:28:43Z</time>
      </trkpt>
      <trkpt lat="46.03065" lon="3.81396">
        <ele>1025</ele>
        <time>2011-09-18T20:28:43Z</time>
      </trkpt>
      <trkpt lat="46.03188" lon="3.81438">
        <ele>1018</ele>
        <time>2011-09-18T20:28:43Z</time>
      </trkpt>
      <trkpt lat="46.0335" lon="3.81433">
        <ele>1002</ele>
        <time>2011-09-18T20:28:43Z</time>
      </trkpt>
      <trkpt lat="46.0344" lon="3.81458">
        <ele>1005</ele>
        <time>2011-09-18T20:28:43Z</time>
      </trkpt>
      <trkpt lat="46.03449" lon="3.81434">
        <ele>1006</ele>
        <time>2011-09-18T20:28:43Z</time>
      </trkpt>
      <trkpt lat="46.03546" lon="3.81422">
        <ele>1005</ele>
        <time>2011-09-18T20:28:43Z</time>
      </trkpt>
      <trkpt lat="46.03594" lon="3.81415">
        <ele>1002</ele>
        <time>2011-09-18T20:28:43Z</time>
      </trkpt>
      <trkpt lat="46.03715" lon="3.81392">
        <ele>998</ele>
        <time>2011-09-18T20:28:43Z</time>
      </trkpt>
      <trkpt lat="46.038" lon="3.81369">
        <ele>996</ele>
        <time>2011-09-18T20:28:43Z</time>
      </trkpt>
      <trkpt lat="46.03872" lon="3.81361">
        <ele>996</ele>
        <time>2011-09-18T20:28:43Z</time>
      </trkpt>
      <trkpt lat="46.03915" lon="3.81356">
        <ele>994</ele>
        <time>2011-09-18T20:28:43Z</time>
      </trkpt>
      <trkpt lat="46.03966" lon="3.81333">
        <ele>990</ele>
        <time>2011-09-18T20:28:43Z</time>
      </trkpt>
      <trkpt lat="46.03998" lon="3.81302">
        <ele>990</ele>
        <time>2011-09-18T20:28:43Z</time>
      </trkpt>
      <trkpt lat="46.04018" lon="3.81247">
        <ele>990</ele>
        <time>2011-09-18T20:28:43Z</time>
      </trkpt>
      <trkpt lat="46.04063" lon="3.8115">
        <ele>989</ele>
        <time>2011-09-18T20:28:43Z</time>
      </trkpt>
      <trkpt lat="46.04096" lon="3.81085">
        <ele>989</ele>
        <time>2011-09-18T20:28:43Z</time>
      </trkpt>
      <trkpt lat="46.04124" lon="3.81048">
        <ele>988</ele>
        <time>2011-09-18T20:28:43Z</time>
      </trkpt>
      <trkpt lat="46.04146" lon="3.81004">
        <ele>988</ele>
        <time>2011-09-18T20:28:43Z</time>
      </trkpt>
      <trkpt lat="46.04177" lon="3.80987">
        <ele>989</ele>
        <time>2011-09-18T20:28:43Z</time>
      </trkpt>
      <trkpt lat="46.04236" lon="3.81048">
        <ele>994</ele>
        <time>2011-09-18T20:28:43Z</time>
      </trkpt>
      <trkpt lat="46.04269" lon="3.81071">
        <ele>995</ele>
        <time>2011-09-18T20:28:43Z</time>
      </trkpt>
      <trkpt lat="46.04338" lon="3.81114">
        <ele>996</ele>
        <time>2011-09-18T20:28:43Z</time>
      </trkpt>
      <trkpt lat="46.04415" lon="3.81161">
        <ele>996</ele>
        <time>2011-09-18T20:28:43Z</time>
      </trkpt>
      <trkpt lat="46.04456" lon="3.81186">
        <ele>995</ele>
        <time>2011-09-18T20:28:43Z</time>
      </trkpt>
      <trkpt lat="46.04491" lon="3.81215">
        <ele>992</ele>
        <time>2011-09-18T20:28:43Z</time>
      </trkpt>
      <trkpt lat="46.04515" lon="3.81228">
        <ele>989</ele>
        <time>2011-09-18T20:28:43Z</time>
      </trkpt>
      <trkpt lat="46.04556" lon="3.81229">
        <ele>989</ele>
        <time>2011-09-18T20:28:43Z</time>
      </trkpt>
      <trkpt lat="46.04605" lon="3.81203">
        <ele>994</ele>
        <time>2011-09-18T20:28:43Z</time>
      </trkpt>
      <trkpt lat="46.04719" lon="3.81111">
        <ele>1007</ele>
        <time>2011-09-18T20:28:43Z</time>
      </trkpt>
      <trkpt lat="46.04796" lon="3.81031">
        <ele>1016</ele>
        <time>2011-09-18T20:28:43Z</time>
      </trkpt>
      <trkpt lat="46.04898" lon="3.80954">
        <ele>1021</ele>
        <time>2011-09-18T20:28:43Z</time>
      </trkpt>
      <trkpt lat="46.04987" lon="3.80855">
        <ele>1018</ele>
        <time>2011-09-18T20:28:43Z</time>
      </trkpt>
      <trkpt lat="46.0506" lon="3.80786">
        <ele>1017</ele>
        <time>2011-09-18T20:28:43Z</time>
      </trkpt>
      <trkpt lat="46.05125" lon="3.80712">
        <ele>1016</ele>
        <time>2011-09-18T20:28:43Z</time>
      </trkpt>
      <trkpt lat="46.05156" lon="3.80679">
        <ele>1014</ele>
        <time>2011-09-18T20:28:43Z</time>
      </trkpt>
      <trkpt lat="46.05201" lon="3.8062">
        <ele>1013</ele>
        <time>2011-09-18T20:28:43Z</time>
      </trkpt>
      <trkpt lat="46.05232" lon="3.80587">
        <ele>1012</ele>
        <time>2011-09-18T20:28:43Z</time>
      </trkpt>
      <trkpt lat="46.0527" lon="3.80543">
        <ele>1012</ele>
        <time>2011-09-18T20:28:43Z</time>
      </trkpt>
      <trkpt lat="46.05306" lon="3.80521">
        <ele>1013</ele>
        <time>2011-09-18T20:28:43Z</time>
      </trkpt>
      <trkpt lat="46.05363" lon="3.80469">
        <ele>1013</ele>
        <time>2011-09-18T20:28:43Z</time>
      </trkpt>
      <trkpt lat="46.05409" lon="3.80428">
        <ele>1012</ele>
        <time>2011-09-18T20:28:43Z</time>
      </trkpt>
      <trkpt lat="46.05444" lon="3.80395">
        <ele>1013</ele>
        <time>2011-09-18T20:28:43Z</time>
      </trkpt>
      <trkpt lat="46.055" lon="3.80339">
        <ele>1012</ele>
        <time>2011-09-18T20:28:43Z</time>
      </trkpt>
      <trkpt lat="46.05526" lon="3.8031">
        <ele>1011</ele>
        <time>2011-09-18T20:28:43Z</time>
      </trkpt>
      <trkpt lat="46.05546" lon="3.80292">
        <ele>1010</ele>
        <time>2011-09-18T20:28:43Z</time>
      </trkpt>
      <trkpt lat="46.05572" lon="3.80289">
        <ele>1009</ele>
        <time>2011-09-18T20:28:43Z</time>
      </trkpt>
      <trkpt lat="46.05611" lon="3.80308">
        <ele>1009</ele>
        <time>2011-09-18T20:28:43Z</time>
      </trkpt>
      <trkpt lat="46.05629" lon="3.80324">
        <ele>1009</ele>
        <time>2011-09-18T20:28:43Z</time>
      </trkpt>
      <trkpt lat="46.05632" lon="3.8027">
        <ele>1005</ele>
        <time>2011-09-18T20:28:43Z</time>
      </trkpt>
      <trkpt lat="46.05638" lon="3.80239">
        <ele>1002</ele>
        <time>2011-09-18T20:28:43Z</time>
      </trkpt>
      <trkpt lat="46.05655" lon="3.80194">
        <ele>996</ele>
        <time>2011-09-18T20:28:43Z</time>
      </trkpt>
      <trkpt lat="46.05671" lon="3.80159">
        <ele>992</ele>
        <time>2011-09-18T20:28:43Z</time>
      </trkpt>
      <trkpt lat="46.05661" lon="3.80127">
        <ele>991</ele>
        <time>2011-09-18T20:28:43Z</time>
      </trkpt>
      <trkpt lat="46.0565" lon="3.80112">
        <ele>991</ele>
        <time>2011-09-18T20:28:43Z</time>
      </trkpt>
      <trkpt lat="46.05621" lon="3.80061">
        <ele>988</ele>
        <time>2011-09-18T20:28:43Z</time>
      </trkpt>
      <trkpt lat="46.05599" lon="3.79999">
        <ele>982</ele>
        <time>2011-09-18T20:28:43Z</time>
      </trkpt>
      <trkpt lat="46.05579" lon="3.79872">
        <ele>974</ele>
        <time>2011-09-18T20:28:43Z</time>
      </trkpt>
      <trkpt lat="46.05559" lon="3.79773">
        <ele>967</ele>
        <time>2011-09-18T20:28:43Z</time>
      </trkpt>
      <trkpt lat="46.05557" lon="3.79681">
        <ele>960</ele>
        <time>2011-09-18T20:28:43Z</time>
      </trkpt>
      <trkpt lat="46.05608" lon="3.79594">
        <ele>955</ele>
        <time>2011-09-18T20:28:43Z</time>
      </trkpt>
      <trkpt lat="46.05678" lon="3.79511">
        <ele>950</ele>
        <time>2011-09-18T20:28:43Z</time>
      </trkpt>
      <trkpt lat="46.05714" lon="3.79485">
        <ele>949</ele>
        <time>2011-09-18T20:28:43Z</time>
      </trkpt>
      <trkpt lat="46.05815" lon="3.79434">
        <ele>952</ele>
        <time>2011-09-18T20:28:43Z</time>
      </trkpt>
      <trkpt lat="46.05887" lon="3.79388">
        <ele>955</ele>
        <time>2011-09-18T20:28:43Z</time>
      </trkpt>
      <trkpt lat="46.05932" lon="3.79352">
        <ele>957</ele>
        <time>2011-09-18T20:28:43Z</time>
      </trkpt>
      <trkpt lat="46.05967" lon="3.79327">
        <ele>958</ele>
        <time>2011-09-18T20:28:43Z</time>
      </trkpt>
      <trkpt lat="46.05997" lon="3.79299">
        <ele>957</ele>
        <time>2011-09-18T20:28:43Z</time>
      </trkpt>
      <trkpt lat="46.06012" lon="3.79278">
        <ele>955</ele>
        <time>2011-09-18T20:28:43Z</time>
      </trkpt>
      <trkpt lat="46.06014" lon="3.79259">
        <ele>954</ele>
        <time>2011-09-18T20:28:43Z</time>
      </trkpt>
      <trkpt lat="46.06013" lon="3.79228">
        <ele>953</ele>
        <time>2011-09-18T20:28:43Z</time>
      </trkpt>
      <trkpt lat="46.06007" lon="3.79205">
        <ele>952</ele>
        <time>2011-09-18T20:28:43Z</time>
      </trkpt>
      <trkpt lat="46.05961" lon="3.79165">
        <ele>947</ele>
        <time>2011-09-18T20:28:43Z</time>
      </trkpt>
      <trkpt lat="46.05929" lon="3.79082">
        <ele>938</ele>
        <time>2011-09-18T20:28:43Z</time>
      </trkpt>
      <trkpt lat="46.05919" lon="3.78998">
        <ele>934</ele>
        <time>2011-09-18T20:28:43Z</time>
      </trkpt>
      <trkpt lat="46.05906" lon="3.78946">
        <ele>927</ele>
        <time>2011-09-18T20:28:43Z</time>
      </trkpt>
      <trkpt lat="46.05905" lon="3.78879">
        <ele>920</ele>
        <time>2011-09-18T20:28:43Z</time>
      </trkpt>
      <trkpt lat="46.05908" lon="3.7876">
        <ele>909</ele>
        <time>2011-09-18T20:28:43Z</time>
      </trkpt>
      <trkpt lat="46.05906" lon="3.78713">
        <ele>903</ele>
        <time>2011-09-18T20:28:43Z</time>
      </trkpt>
      <trkpt lat="46.05898" lon="3.78663">
        <ele>896</ele>
        <time>2011-09-18T20:28:43Z</time>
      </trkpt>
      <trkpt lat="46.05885" lon="3.7862">
        <ele>894</ele>
        <time>2011-09-18T20:28:43Z</time>
      </trkpt>
      <trkpt lat="46.05881" lon="3.78588">
        <ele>894</ele>
        <time>2011-09-18T20:28:43Z</time>
      </trkpt>
      <trkpt lat="46.05876" lon="3.78557">
        <ele>897</ele>
        <time>2011-09-18T20:28:43Z</time>
      </trkpt>
      <trkpt lat="46.05882" lon="3.78528">
        <ele>898</ele>
        <time>2011-09-18T20:28:43Z</time>
      </trkpt>
      <trkpt lat="46.05876" lon="3.78509">
        <ele>900</ele>
        <time>2011-09-18T20:28:43Z</time>
      </trkpt>
      <trkpt lat="46.05872" lon="3.785">
        <ele>902</ele>
        <time>2011-09-18T20:28:43Z</time>
      </trkpt>
    </trkseg>
  </trk>
</gpx>